[[{"header":{"parameterUnit":"m.s-1","parameterCategory":1,"la1":30.6,"la2":29.2853,"lo1":-89.7004,"lo2":-87.6739,"dy":0.0162,"dx":0.0183,"nx":112,"ny":82,"refTime":"2024-09-20T12:00:00:Z","depth":0,"parameterNumber":2,"parameterNumberName":"U-component_of_WINDS"},"data":[0.0,0.0,0.0,0.0,0.0,0.0,0.0,0.0,0.0,0.0,0.0,0.0,0.0,0.0,0.0,0.0,0.0,0.0,0.0,0.0,0.0,0.0,0.0,0.0,0.0,0.0,0.0,0.0,0.0,0.0,0.0,0.0,0.0,0.0,0.0,0.0,0.0,0.0,0.0,0.0,0.0,0.0,0.0,0.0,0.0,0.0,0.0,0.0,0.0,0.0,0.0,0.0,0.0,0.0,0.0,0.0,0.0,0.0,0.0,0.0,0.0,0.0,0.0,0.0,0.0,0.0,0.0,0.0,0.0,0.0,0.0,0.0,0.0,0.0,0.0,0.0,0.0,0.0,0.0,0.0,0.0,0.0,0.0,0.0,0.0,0.0,0.0,0.0,0.0,0.0,1.0977,1.1448,1.1567,1.1243,1.0361,1.0303,0.9951,0.9142,0.0,0.0,0.0,0.0,0.0,0.0,0.0,0.0,0.0,0.0,0.0,0.0,0.0,0.0,0.0,0.0,0.0,0.0,0.0,0.0,0.0,0.0,0.0,0.0,0.0,0.0,0.0,0.0,0.0,0.0,0.0,0.0,0.0,0.0,0.0,0.0,0.0,0.0,0.0,0.0,0.0,0.0,0.0,0.0,0.0,0.0,0.0,0.0,0.0,0.0,0.0,0.0,0.0,0.0,0.0,0.0,0.0,0.0,0.0,0.0,0.0,0.0,0.0,0.0,0.0,0.0,0.0,0.0,0.0,0.0,0.0,0.0,0.0,0.0,0.0,0.0,0.0,0.0,0.0,0.0,0.0,0.0,0.0,0.0,0.0,0.0,0.0,0.0,0.0,0.0,0.0,0.0,0.0,0.0,0.0,0.0,0.0,0.0,0.0,0.0,0.0,0.0,0.0,0.0,1.0547,1.0967,1.1359,1.1243,1.0361,1.0303,1.0068,0.9543,0.0,0.0,0.0,0.0,0.0,0.0,0.0,0.0,0.0,0.0,0.0,0.0,0.0,0.0,0.0,0.0,0.0,0.0,0.0,0.0,0.0,0.0,0.0,0.0,0.0,0.0,0.0,0.0,0.0,0.0,0.0,0.0,0.0,0.0,0.0,0.0,0.0,0.0,0.0,0.0,0.0,0.0,0.0,0.0,0.0,0.0,0.0,0.0,0.0,0.0,0.0,0.0,0.0,0.0,0.0,0.0,0.0,0.0,0.0,0.0,0.0,0.0,0.0,0.0,0.0,0.0,0.0,0.0,0.0,0.0,0.0,0.0,0.0,0.0,0.0,0.0,0.0,0.0,0.0,0.0,0.0,0.0,0.0,0.0,0.0,0.0,0.0,0.0,0.0,0.0,0.0,0.0,0.0,0.0,0.0,0.0,0.0,0.0,0.0,0.0,0.0,0.0,0.0,1.1016,1.1076,1.1261,1.1478,1.1243,1.0361,1.0303,1.0009,0.9318,0.9103,0.0,0.0,0.0,0.0,0.0,0.0,0.0,0.0,0.0,0.0,0.0,0.0,0.0,0.0,0.0,0.0,0.0,0.0,0.0,0.0,0.0,0.0,0.0,0.0,0.0,0.0,0.0,0.0,0.0,0.0,0.0,0.0,0.0,0.0,0.0,0.0,0.0,0.0,0.0,0.0,0.0,0.0,0.0,0.0,0.0,0.0,0.0,0.0,0.0,0.0,0.0,0.0,0.0,0.0,0.0,0.0,0.0,0.0,0.0,0.0,0.0,0.0,0.0,0.0,0.0,0.0,0.0,0.0,0.0,0.0,0.0,0.0,0.0,0.0,0.0,0.0,0.0,0.0,0.0,0.0,0.0,0.0,0.0,0.0,0.0,0.0,0.0,0.0,0.0,0.0,0.0,0.0,0.0,0.0,0.0,0.0,0.0,0.0,0.0,0.0,0.0,0.0,1.1964,1.1832,1.1615,1.1606,1.1243,1.0361,1.0195,0.9805,0.9053,0.8916,0.0,0.0,0.0,0.0,0.0,0.0,0.0,0.0,0.0,0.0,0.0,0.0,0.0,0.0,0.0,0.0,0.0,0.0,0.0,0.0,0.0,0.0,0.0,0.0,0.0,0.0,0.0,0.0,0.0,0.0,0.0,0.0,0.0,0.0,0.0,0.0,0.0,0.0,0.0,0.0,0.0,0.0,0.0,0.0,0.0,0.0,0.0,0.0,0.0,0.0,0.0,0.0,0.0,0.0,0.0,0.0,0.0,0.0,0.0,0.0,0.0,0.0,0.0,0.0,0.0,0.0,0.0,0.0,0.0,0.0,0.0,0.0,0.0,0.0,0.0,0.0,0.0,0.0,0.0,0.0,0.0,0.0,0.0,0.0,0.0,0.0,0.0,0.0,0.0,0.0,0.0,0.0,0.0,0.0,0.0,0.0,0.0,0.0,0.0,0.0,0.0,0.0,1.2318,1.2494,1.1694,1.1606,1.1243,1.0361,0.9903,0.9464,0.9025,0.8651,0.0,0.0,0.0,0.0,0.0,0.0,0.0,0.0,0.0,0.0,0.0,0.0,0.0,0.0,0.0,0.0,0.0,0.0,0.0,0.0,0.0,0.0,0.0,0.0,0.0,0.0,0.0,0.0,0.0,0.0,0.0,0.0,0.0,0.0,0.0,0.0,0.0,0.0,0.0,0.0,0.0,0.0,0.0,0.0,0.0,0.0,0.0,0.0,0.0,0.0,0.0,0.0,0.0,0.0,0.0,0.0,0.0,0.0,0.0,0.0,0.0,0.0,0.0,0.0,0.0,0.0,0.0,0.0,0.0,0.0,0.0,0.0,0.0,0.0,0.0,0.0,0.0,0.0,0.0,0.0,0.0,0.0,0.0,0.0,0.0,0.0,0.0,0.0,0.0,0.0,0.0,0.0,0.0,0.0,0.0,0.0,0.0,0.0,0.0,0.0,0.0,0.0,1.2111,1.2236,0.0,1.1606,1.1243,1.0361,1.0146,0.9746,0.9044,0.0,0.0,0.0,0.0,0.0,0.0,0.0,0.0,0.0,0.0,0.0,0.0,0.0,0.0,0.0,0.0,0.0,0.0,0.0,0.0,0.0,0.0,0.0,0.0,0.0,0.0,0.0,0.0,0.0,0.0,0.0,0.0,0.0,0.0,0.0,0.0,0.0,0.0,0.0,0.0,0.0,0.0,0.0,0.0,0.0,0.0,0.0,0.0,0.0,0.0,0.0,0.0,0.0,0.0,0.0,0.0,0.0,0.0,0.0,0.0,0.0,0.0,0.0,0.0,0.0,0.0,0.0,0.0,0.0,0.0,0.0,0.0,0.0,0.0,0.0,0.0,0.0,0.0,0.0,0.0,0.0,0.0,0.0,0.0,0.0,0.0,0.0,0.0,0.0,0.0,0.0,0.0,0.0,0.0,0.0,0.0,0.0,0.0,0.0,0.0,0.0,0.0,1.1428,1.207,1.2207,0.0,1.1606,1.1243,1.0361,1.0156,0.9766,0.9044,0.0,0.0,0.0,0.0,0.0,0.0,0.0,0.0,0.0,0.0,0.0,0.0,0.0,0.0,0.0,0.0,0.0,0.0,0.0,0.0,0.0,0.0,0.0,0.0,0.0,0.0,0.0,0.0,0.0,0.0,0.0,0.0,0.0,0.0,0.0,0.0,0.0,0.0,0.0,0.0,0.0,0.0,0.0,0.0,0.0,0.0,0.0,0.0,0.0,0.0,0.0,0.0,0.0,0.0,0.0,0.0,0.0,0.0,0.0,0.0,0.0,0.0,0.0,0.0,0.0,0.0,0.0,0.0,0.0,0.0,0.0,0.0,0.0,0.0,0.0,0.0,0.0,0.0,0.0,0.0,0.0,0.0,0.0,0.0,0.0,0.0,0.0,0.0,0.0,0.0,0.0,0.0,0.0,0.0,0.0,0.0,0.0,0.0,0.0,0.0,0.0,0.0,1.1444,1.2357,1.2563,1.1693,1.1595,1.1252,1.0381,0.9874,0.9435,0.0,0.0,0.0,0.0,0.0,0.0,0.0,0.0,0.0,0.0,0.0,0.0,0.0,0.0,0.0,0.0,0.0,0.0,0.0,0.0,0.0,0.0,0.0,0.0,0.0,0.0,0.0,0.0,0.0,0.0,0.0,0.0,0.0,0.0,0.0,0.0,0.0,0.0,0.0,0.0,0.0,0.0,0.0,0.0,0.0,0.0,0.0,0.0,0.0,0.0,0.0,0.0,0.0,0.0,0.0,0.0,0.0,0.0,0.0,0.0,0.0,0.0,0.0,0.0,0.0,0.0,0.0,0.0,0.0,0.0,0.0,0.0,0.0,0.0,0.0,0.0,0.0,0.0,0.0,0.0,0.0,0.0,0.0,0.0,0.0,0.0,0.0,0.0,0.0,0.0,0.0,0.0,0.0,0.0,0.0,0.0,0.0,0.0,0.0,0.0,0.0,0.0,0.0,1.1467,1.2357,1.2678,1.209,1.177,1.136,1.0771,1.0332,0.9785,0.9044,0.0,0.0,0.0,0.0,0.0,0.0,0.0,0.0,0.0,0.0,0.0,0.0,0.0,0.0,0.0,0.0,0.0,0.0,0.0,0.0,0.0,0.0,0.0,0.0,0.0,0.0,0.0,0.0,0.0,0.0,0.0,0.0,0.0,0.0,0.0,0.0,0.0,0.0,0.0,0.0,0.0,0.0,0.0,0.0,0.0,0.0,0.0,0.0,0.0,0.0,0.0,0.0,0.0,0.0,0.0,0.0,0.0,0.0,0.0,0.0,0.0,0.0,0.0,0.0,0.0,0.0,0.0,0.0,0.0,0.0,0.0,0.0,0.0,0.0,0.0,0.0,0.0,0.0,0.0,0.0,0.0,0.0,0.0,0.0,0.0,0.0,0.0,0.0,0.0,0.0,0.0,0.0,0.0,0.0,0.0,0.0,0.0,0.0,0.0,0.0,0.0,0.0,1.0717,1.178,1.2224,1.1624,1.1586,1.135,1.0713,1.044,0.9921,0.9062,0.0,0.0,0.0,0.0,0.0,0.0,0.0,0.0,0.0,0.0,0.0,0.0,0.0,0.0,0.0,0.0,0.0,0.0,0.0,0.0,0.0,0.0,0.0,0.0,0.0,0.0,0.0,0.0,0.0,0.0,0.0,0.0,0.0,0.0,0.0,0.0,0.0,0.0,0.0,0.0,0.0,0.0,0.0,0.0,0.0,0.0,0.0,0.0,0.0,0.0,0.0,0.0,0.0,0.0,0.0,0.0,0.0,0.0,0.0,0.0,0.0,0.0,0.0,0.0,0.0,0.0,0.0,0.0,0.0,0.0,0.0,0.0,0.0,0.0,0.0,0.0,0.0,0.0,0.0,0.0,0.0,0.0,0.0,0.0,0.0,0.0,0.0,0.0,0.0,0.0,0.0,0.0,0.0,0.0,0.0,0.0,0.0,0.0,0.0,0.0,0.0,0.0,0.9739,1.1053,1.1625,1.0895,1.1293,1.1282,1.0488,1.0352,0.9922,0.9034,0.0,0.0,0.0,0.0,0.0,0.0,0.0,0.0,0.0,0.0,0.0,0.0,0.0,0.0,0.0,0.0,0.0,0.0,0.0,0.0,0.0,0.0,0.0,0.0,0.0,0.0,0.0,0.0,0.0,0.0,0.0,0.0,0.0,0.0,0.0,0.0,0.0,0.0,0.0,0.0,0.0,0.0,0.0,0.0,0.0,0.0,0.0,0.0,0.0,0.0,0.0,0.0,0.0,0.0,0.0,0.0,0.0,0.0,0.0,0.0,0.3477,0.0,0.0,0.0,0.0,0.0,0.0,0.0,0.0,0.0,0.0,0.0,0.0,0.0,0.0,0.0,0.0,0.0,0.0,0.0,0.0,0.0,0.0,0.0,0.0,0.0,0.0,0.0,0.0,0.0,0.0,0.0,0.0,0.0,0.0,0.0,0.0,0.0,0.0,0.0,0.0,0.0,1.106,1.2058,1.2599,1.2438,1.1916,1.1517,1.1341,1.0694,0.9877,0.8903,0.8566,0.0,0.0,0.0,0.0,0.0,0.0,0.0,0.0,0.0,0.0,0.0,0.0,0.0,0.0,0.0,0.0,0.0,0.0,0.0,0.0,0.0,0.0,0.0,0.0,0.0,0.0,0.0,0.0,0.0,0.0,0.0,0.0,0.0,0.0,0.0,0.0,0.0,0.0,0.0,0.0,0.0,0.0,0.0,0.0,0.0,0.0,0.0,0.0,0.0,0.0,0.0,0.0,0.0,0.0,0.0,0.0,0.0,0.0,0.0,0.0,0.3778,0.0,0.0,0.0,0.0,0.0,0.0,0.0,0.0,0.0,0.0,0.0,0.0,0.0,0.0,0.0,0.0,0.0,0.0,0.0,0.0,0.0,0.0,0.0,0.0,0.0,0.0,0.0,0.0,0.0,0.0,0.0,0.0,0.0,0.0,0.0,0.0,0.0,0.0,0.0,0.0,0.995,1.0854,1.1344,1.1149,1.1297,1.1236,1.0819,1.0656,1.0078,0.8882,0.8493,0.0,0.0,0.0,0.0,0.0,0.0,0.0,0.0,0.0,0.0,0.0,0.0,0.0,0.0,0.0,0.0,0.0,0.0,0.0,0.0,0.0,0.0,0.0,0.0,0.0,0.0,0.0,0.0,0.0,0.0,0.0,0.0,0.0,0.0,0.0,0.0,0.0,0.0,0.0,0.0,0.0,0.0,0.0,0.0,0.0,0.0,0.0,0.0,0.0,0.0,0.0,0.0,0.0,0.4149,0.4149,0.4149,0.4149,0.4206,0.4277,0.4166,0.4166,0.4247,0.0,0.0,0.0,0.0,0.0,0.0,0.0,0.0,0.0,0.0,0.0,0.0,0.0,0.0,0.0,0.0,0.0,0.0,0.0,0.0,0.0,0.0,0.0,0.0,0.0,0.827,0.8396,0.0,0.0,0.0,0.0,0.0,0.0,0.0,0.0,0.0,0.0,0.0,0.0,0.8631,0.9454,0.985,0.9515,1.0402,1.0725,1.0013,1.0338,1.0051,0.879,0.8302,0.7647,0.0,0.0,0.0,0.0,0.0,0.0,0.0,0.0,0.0,0.0,0.0,0.0,0.0,0.0,0.0,0.0,0.0,0.0,0.0,0.0,0.0,0.0,0.0,0.0,0.0,0.0,0.0,0.0,0.0,0.0,0.0,0.0,0.2098,0.277,0.0,0.0,0.0,0.0,0.0,0.0,0.0,0.0,0.0,0.0,0.0,0.0,0.0,0.4271,0.4429,0.4549,0.467,0.4788,0.4788,0.4788,0.4788,0.4788,0.4723,0.4629,0.4613,0.0,0.445,0.425,0.0,0.0,0.0,0.0,0.0,0.0,0.0,0.0,0.0,0.0,0.0,0.0,0.0,0.0,0.0,0.0,0.0,0.0,0.0,0.0,0.0,0.0,0.8678,0.8678,0.8717,0.8738,0.0,0.8265,0.7879,0.7799,0.0,0.0,0.0,0.0,0.0,0.0,0.0,0.0,0.989,1.0375,1.0645,1.0583,1.043,1.0288,1.0176,0.9656,0.9063,0.8413,0.782,0.7233,0.6638,0.6307,0.0,0.0,0.0,0.0,0.0,0.0,0.0,0.0,0.0,0.0,0.0,0.0,0.0,0.0,0.0,0.0,0.0,0.0,0.0,0.0,0.0,0.0,0.0,0.0,0.0,0.0,0.0,0.0,0.0,0.2252,0.2755,0.3436,0.3523,0.3617,0.0,0.0,0.0,0.0,0.0,0.0,0.0,0.0,0.0,0.4507,0.4564,0.4639,0.4718,0.4785,0.4838,0.4903,0.4903,0.4903,0.4903,0.4903,0.4865,0.4819,0.4819,0.4779,0.4701,0.4463,0.4419,0.4477,0.0,0.0,0.0,0.0,0.0,0.5116,0.5033,0.5493,0.0,0.0,0.0,0.0,0.0,0.0,0.0,0.0,0.0,0.0,0.0,0.0,0.0,0.8791,0.8791,0.8791,0.8791,0.8591,0.8364,0.0,0.8176,0.813,0.7939,0.0,0.0,0.0,0.0,0.8975,0.9362,0.9565,0.9814,1.0205,1.0418,1.0458,1.0225,1.0252,0.978,0.8606,0.8272,0.7889,0.7352,0.7075,0.6774,0.0,0.0,0.0,0.0,0.0,0.0,0.0,0.0,0.0,0.0,0.0,0.0,0.0,0.0,0.0,0.0,0.0,0.0,0.0,0.0,0.0,0.0,0.0,0.0,0.0,0.0,0.0,0.0,0.2998,0.3404,0.3984,0.4051,0.4051,0.0,0.0,0.0,0.0,0.0,0.0,0.46,0.4702,0.4802,0.4899,0.494,0.4957,0.4957,0.4997,0.5033,0.5033,0.5033,0.5033,0.5033,0.5033,0.4994,0.4957,0.4957,0.4936,0.4886,0.4688,0.4661,0.4748,0.4748,0.4819,0.4903,0.4903,0.5248,0.5697,0.5563,0.6018,0.6616,0.6341,0.0,0.6113,0.6243,0.0,0.0,0.0,0.0,0.8579,0.9072,0.8998,0.8791,0.8791,0.8791,0.8791,0.8791,0.8791,0.8744,0.0,0.8496,0.8429,0.8172,0.0,0.0,0.0,0.0,0.8577,0.8778,0.8791,0.8995,0.9484,0.9987,1.0172,0.986,1.0246,0.9951,0.8707,0.8542,0.8318,0.7917,0.7709,0.7453,0.713,0.0,0.0,0.0,0.0,0.0,0.0,0.0,0.0,0.0,0.0,0.0,0.0,0.0,0.0,0.0,0.0,0.0,0.0,0.0,0.0,0.0,0.0,0.0,0.0,0.0,0.0,0.0,0.0,0.0,0.4167,0.4197,0.0,0.0,0.0,0.0,0.4457,0.4596,0.4735,0.4872,0.4889,0.4896,0.4903,0.5019,0.509,0.509,0.5283,0.5371,0.5371,0.5371,0.5371,0.5371,0.5371,0.5273,0.509,0.509,0.5012,0.4903,0.4889,0.4886,0.4892,0.4892,0.4896,0.4903,0.4903,0.4918,0.4943,0.4803,0.5325,0.6021,0.5882,0.6923,0.8402,0.9226,0.9483,0.0,0.0,0.9389,0.9155,0.9197,0.8998,0.8791,0.8791,0.8791,0.8791,0.8791,0.8791,0.8791,0.0,0.8784,0.8771,0.8751,0.0,0.8751,0.8784,0.8784,0.8791,0.8804,0.8791,0.8818,0.8844,0.8883,0.889,0.8876,0.8671,0.8501,0.8413,0.8119,0.7929,0.7905,0.7892,0.7751,0.7482,0.7134,0.0,0.0,0.0,0.0,0.0,0.0,0.0,0.0,0.0,0.0,0.0,0.0,0.0,0.0,0.0,0.0,0.0,0.0,0.0,0.0,0.0,0.0,0.0,0.0,0.0,0.0,0.0,0.0,0.45,0.4605,0.0,0.4651,0.4651,0.4686,0.4752,0.4875,0.498,0.5022,0.5148,0.5219,0.5219,0.527,0.5297,0.5297,0.5365,0.5395,0.5395,0.5395,0.5395,0.5395,0.5395,0.5365,0.5297,0.5297,0.5266,0.5219,0.5219,0.5145,0.5022,0.5022,0.5102,0.5219,0.5219,0.5219,0.5262,0.5562,0.5874,0.6206,0.6623,0.7567,0.8487,0.8231,0.8664,0.9228,0.914,0.9436,0.973,0.9558,0.9291,0.9011,0.8838,0.8791,0.8791,0.8791,0.8791,0.8791,0.8791,0.8791,0.8791,0.8791,0.8791,0.8791,0.8791,0.8791,0.8791,0.8791,0.8791,0.8956,0.94,0.9439,0.9439,0.9439,0.9352,0.9107,0.869,0.8538,0.8478,0.8478,0.8478,0.835,0.808,0.7744,0.721,0.0,0.0,0.0,0.0,0.0,0.0,0.0,0.0,0.0,0.0,0.0,0.0,0.0,0.0,0.0,0.0,0.0,0.0,0.0,0.0,0.0,0.0,0.0,0.0,0.0,0.0,0.4566,0.4745,0.4842,0.4903,0.4903,0.4947,0.4974,0.4974,0.5156,0.5271,0.5271,0.5443,0.5542,0.5542,0.5542,0.5542,0.5542,0.5494,0.5474,0.5474,0.5419,0.5395,0.5395,0.5395,0.5395,0.5395,0.5395,0.5395,0.5395,0.5395,0.5317,0.5209,0.5209,0.5287,0.5395,0.5395,0.5395,0.5444,0.5802,0.5883,0.5962,0.6814,0.7481,0.7965,0.798,0.8509,0.9144,0.9355,0.9746,1.0058,0.988,0.9598,0.9298,0.9011,0.9018,0.9078,0.8958,0.9018,0.9105,0.9105,0.8945,0.8791,0.8791,0.8791,0.8791,0.8791,0.8791,0.8791,0.8791,0.8791,0.8969,0.9413,0.9465,0.9465,0.9465,0.9465,0.927,0.8831,0.8791,0.8791,0.8791,0.8791,0.8671,0.8409,0.7976,0.7482,0.6908,0.0,0.0,0.0,0.0,0.0,0.0,0.0,0.0,0.0,0.0,0.0,0.0,0.0,0.0,0.0,0.0,0.0,0.0,0.0,0.0,0.0,0.0,0.0,0.3355,0.403,0.461,0.4875,0.4913,0.4919,0.4926,0.5032,0.5113,0.512,0.5426,0.5613,0.5613,0.5728,0.58,0.58,0.58,0.58,0.58,0.5664,0.5613,0.5613,0.5481,0.5409,0.5409,0.5402,0.5402,0.5402,0.5395,0.5395,0.5395,0.5395,0.5395,0.5395,0.5395,0.5395,0.5395,0.5395,0.5395,0.5395,0.5395,0.5296,0.5318,0.6371,0.6719,0.7062,0.8748,0.9268,0.9482,1.0317,1.0354,1.0112,1.0105,0.9907,0.9634,0.9297,0.9458,0.9606,0.9291,0.9465,0.9701,0.9701,0.9225,0.8831,0.8831,0.8831,0.8831,0.8831,0.8831,0.0,0.8811,0.8811,0.8804,0.8804,0.8791,0.8791,0.8791,0.8791,0.8791,0.8791,0.8791,0.8791,0.8791,0.8791,0.8671,0.8415,0.7824,0.7515,0.7515,0.0,0.0,0.0,0.0,0.0,0.0,0.0,0.0,0.0,0.0,0.0,0.0,0.0,0.0,0.0,0.0,0.0,0.0,0.0,0.0,0.0,0.3711,0.4463,0.4463,0.4729,0.4963,0.5029,0.5172,0.53,0.5393,0.544,0.5508,0.5592,0.5694,0.5742,0.5742,0.5779,0.58,0.58,0.58,0.58,0.58,0.5762,0.5742,0.5742,0.5701,0.5698,0.5695,0.5593,0.5545,0.5539,0.5443,0.5395,0.5395,0.5395,0.5395,0.5395,0.5395,0.5395,0.5395,0.5395,0.5395,0.5395,0.5395,0.5769,0.6314,0.6604,0.7128,0.773,0.8205,0.8796,0.9354,0.9594,1.0053,1.0403,1.0158,1.0045,0.9927,0.9633,0.964,0.9674,0.9579,0.964,0.9701,0.9701,0.9567,0.946,0.946,0.946,0.946,0.946,0.946,0.0,0.9124,0.9091,0.9011,0.8818,0.8791,0.8791,0.8791,0.8791,0.8791,0.8791,0.8791,0.8791,0.8791,0.8791,0.8771,0.8691,0.8091,0.7791,0.0,0.0,0.0,0.0,0.0,0.0,0.0,0.0,0.0,0.0,0.0,0.0,0.0,0.0,0.0,0.0,0.0,0.0,0.0,0.0,0.0,0.0,0.3455,0.4241,0.5,0.5105,0.5123,0.522,0.5379,0.5508,0.56,0.5644,0.5711,0.5793,0.5861,0.5876,0.5876,0.5959,0.6011,0.6011,0.6011,0.6011,0.6011,0.5928,0.5876,0.5876,0.583,0.58,0.5796,0.5718,0.5647,0.0,0.5511,0.5453,0.5395,0.5395,0.5395,0.0,0.0,0.0,0.0,0.0,0.5395,0.5395,0.5395,0.5736,0.6157,0.6157,0.6498,0.7055,0.7783,0.8355,0.8909,0.9642,1.0206,1.0568,1.0363,1.0316,1.0227,0.9933,0.9975,1.0043,0.9893,0.9982,1.0084,1.0084,0.0,0.0,1.0084,0.9861,0.9701,0.9701,0.9701,0.9634,0.9431,0.9291,0.913,0.8978,0.8865,0.8791,0.8791,0.8791,0.0,0.0,0.0,0.8791,0.8791,0.8691,0.0,0.0,0.0,0.0,0.0,0.0,0.0,0.0,0.7829,0.7787,0.0,0.0,0.0,0.0,0.0,0.0,0.0,0.0,0.0,0.0,0.0,0.0,0.0,0.0,0.0,0.0,0.3225,0.3559,0.5173,0.5243,0.5206,0.5378,0.5515,0.5613,0.5613,0.5742,0.5833,0.5854,0.5961,0.6039,0.6039,0.0,0.0,0.0,0.0,0.63,0.63,0.6125,0.6039,0.6035,0.5918,0.5854,0.5854,0.5833,0.5759,0.564,0.5623,0.5556,0.5443,0.5443,0.5443,0.544,0.5405,0.5395,0.5395,0.5395,0.5395,0.0,0.0,0.0,0.0,0.5395,0.5458,0.5855,0.7536,0.8096,0.8501,1.0174,1.062,1.0609,1.0609,1.0609,1.0526,1.0234,1.0383,1.0519,1.0221,1.039,1.0609,1.0609,1.0609,1.0609,1.0609,1.0157,0.9794,0.9794,0.9794,0.9788,0.9754,0.9485,0.9283,0.925,0.0,0.0,0.8844,0.8811,0.8791,0.8791,0.8791,0.8791,0.8791,0.857,0.8557,0.8791,0.857,0.8563,0.8791,0.8791,0.8791,0.8778,0.8013,0.7926,0.0,0.0,0.0,0.0,0.0,0.0,0.0,0.0,0.0,0.0,0.0,0.0,0.0,0.0,0.0,0.2813,0.4008,0.4992,0.5355,0.5368,0.5361,0.5392,0.5515,0.5633,0.5749,0.5876,0.6037,0.6201,0.6219,0.6236,0.6236,0.6282,0.0,0.63,0.63,0.63,0.63,0.6269,0.6236,0.6236,0.0,0.0,0.6204,0.6044,0.5951,0.592,0.5813,0.5742,0.5718,0.5718,0.5718,0.5709,0.5487,0.5395,0.5395,0.5395,0.5395,0.5395,0.5395,0.5395,0.5395,0.5395,0.5881,0.6683,0.7936,0.8668,0.0,1.0575,1.0774,1.0609,1.0609,1.0609,1.0579,1.0519,1.0553,1.0579,1.0519,1.0553,1.0609,1.0609,1.0609,1.0609,1.0609,1.0499,1.0425,1.0425,1.0425,1.0332,1.006,0.9965,0.9845,0.9626,0.9318,0.9131,0.9131,0.8925,0.8791,0.8791,0.8791,0.8791,0.8791,0.8751,0.8751,0.8791,0.8751,0.8751,0.8791,0.8791,0.8791,0.8791,0.8631,0.8611,0.0,0.0,0.0,0.0,0.0,0.0,0.0,0.0,0.0,0.0,0.0,0.0,0.0,0.0,0.2158,0.2626,0.3829,0.4855,0.5326,0.5395,0.5423,0.5484,0.5624,0.5752,0.5883,0.6054,0.6195,0.6293,0.63,0.63,0.63,0.63,0.63,0.63,0.63,0.63,0.63,0.63,0.63,0.63,0.63,0.63,0.6296,0.6199,0.6101,0.599,0.593,0.5853,0.58,0.58,0.58,0.5786,0.5658,0.5556,0.5484,0.5423,0.5395,0.5395,0.5395,0.5395,0.5395,0.5395,0.574,0.6335,0.7349,0.7902,0.8486,0.986,1.0149,1.0131,1.0499,1.0609,1.0609,1.0609,1.0609,1.0609,1.0609,1.0609,1.0609,1.0609,1.0609,1.0609,1.0609,1.0609,1.0609,1.0609,1.0609,1.0539,1.037,1.0192,1.0045,0.9913,0.9639,0.9391,0.921,0.8958,0.8791,0.8791,0.8791,0.8791,0.8791,0.8791,0.8791,0.8791,0.8791,0.8791,0.8791,0.8791,0.8871,0.8998,0.8998,0.8998,0.0,0.0,0.0,0.0,0.0,0.0,0.0,0.0,0.0,0.0,0.0,0.0046,0.0224,0.0971,0.1882,0.2839,0.3727,0.4582,0.5373,0.5481,0.5522,0.5657,0.5749,0.5861,0.5979,0.6188,0.63,0.63,0.63,0.63,0.63,0.63,0.63,0.63,0.63,0.63,0.63,0.63,0.63,0.63,0.63,0.63,0.63,0.63,0.6212,0.6055,0.6055,0.6003,0.5891,0.5891,0.5891,0.5888,0.5857,0.5776,0.5657,0.5522,0.5481,0.5481,0.5481,0.5481,0.5481,0.5481,0.5665,0.603,0.6796,0.718,0.7685,0.9246,0.9631,0.9762,1.0555,1.076,1.076,1.076,1.076,1.0747,1.0687,1.0673,1.066,1.06,1.0609,1.0609,1.0609,1.0609,1.0609,1.0609,1.0609,1.0609,1.0609,1.0363,1.02,1.02,0.994,0.9646,0.9324,0.9098,0.8978,0.8978,0.8978,0.8978,0.8978,0.8978,0.8978,0.8978,0.8978,0.8978,0.8978,0.8978,0.9085,0.9297,0.9357,0.9351,0.0,0.0,0.0,0.0,0.0,0.0,0.0,0.0,0.0,0.0,0.0,0.024,0.1014,0.1919,0.2876,0.3873,0.4812,0.5502,0.5717,0.5752,0.581,0.5944,0.5856,0.5861,0.5979,0.6188,0.63,0.63,0.63,0.63,0.63,0.63,0.63,0.63,0.63,0.63,0.63,0.63,0.63,0.63,0.63,0.63,0.63,0.63,0.6289,0.6272,0.6272,0.6265,0.6248,0.6248,0.6248,0.6235,0.6039,0.5974,0.5944,0.581,0.5752,0.5752,0.5752,0.5752,0.5752,0.5752,0.6292,0.6993,0.7326,0.7825,0.8544,0.9923,1.0084,1.007,1.1057,1.1312,1.1312,1.1312,1.1312,1.1246,1.1019,1.0965,1.0885,1.064,1.0609,1.0609,1.0609,1.0609,1.0609,1.0609,1.0609,1.0609,1.0609,1.0566,1.0546,1.0546,1.0247,0.9953,0.9674,0.962,0.96,0.96,0.96,0.96,0.96,0.96,0.96,0.96,0.96,0.96,0.96,0.96,0.962,0.9654,0.9885,0.9865,0.0,0.0,0.0,0.0,0.0,0.0,0.0,0.0,0.0,0.0,0.0,0.0305,0.1284,0.2208,0.3155,0.0,0.5139,0.5735,0.5793,0.5732,0.5732,0.5859,0.584,0.5898,0.6158,0.6243,0.63,0.63,0.63,0.63,0.63,0.63,0.63,0.63,0.63,0.63,0.63,0.63,0.63,0.63,0.63,0.63,0.63,0.63,0.63,0.63,0.63,0.63,0.63,0.63,0.63,0.6293,0.6209,0.6185,0.6135,0.5891,0.58,0.58,0.58,0.58,0.58,0.58,0.6096,0.6474,0.6596,0.6894,0.737,0.8336,0.8913,0.9452,1.0304,1.097,1.1406,1.1406,1.1406,1.1379,1.1252,1.1226,1.1192,1.1089,1.1062,1.1025,1.0858,1.0831,1.0787,1.062,1.0609,1.0609,1.0609,1.0609,1.0609,1.0609,1.0294,1.0052,0.9947,0.9794,0.9701,0.9701,0.9701,0.9701,0.9701,0.9701,0.9701,0.9701,0.9701,0.9701,0.9701,0.9701,0.9788,0.994,1.0045,1.014,0.0,0.0,0.0,0.0,0.0,0.0,0.0,0.0,0.0,0.0,0.0,0.0408,0.1713,0.2475,0.3346,0.4702,0.544,0.5878,0.5922,0.5803,0.5766,0.593,0.5888,0.5969,0.6272,0.63,0.63,0.63,0.63,0.63,0.63,0.63,0.63,0.63,0.63,0.63,0.63,0.63,0.63,0.63,0.63,0.63,0.63,0.63,0.63,0.63,0.63,0.63,0.63,0.63,0.63,0.63,0.63,0.63,0.6272,0.6028,0.5947,0.5947,0.5947,0.5947,0.5947,0.5947,0.6003,0.6076,0.6076,0.6192,0.6465,0.7216,0.8157,0.9131,0.9934,1.089,1.1646,1.1646,1.1646,1.1626,1.1546,1.155,1.1506,1.1426,1.1406,1.1339,1.1149,1.1109,1.1015,1.0754,1.0713,1.068,1.06,1.0609,1.0609,1.0609,1.0383,1.0241,1.0241,1.0062,0.9956,0.9956,0.9956,0.9956,0.9956,0.9956,0.9956,0.9956,0.9956,0.9956,0.9956,0.9956,1.0048,1.0241,1.0241,1.037,0.0,0.0,0.0,0.0,0.0,0.0,0.0,0.0,0.0,0.0,0.0,0.0582,0.2503,0.2884,0.3566,0.5622,0.5986,0.6055,0.6265,0.6112,0.6055,0.6269,0.6115,0.6066,0.6282,0.63,0.63,0.63,0.63,0.63,0.63,0.63,0.63,0.63,0.63,0.63,0.63,0.63,0.63,0.63,0.63,0.63,0.63,0.63,0.63,0.63,0.63,0.63,0.63,0.63,0.63,0.63,0.63,0.63,0.6296,0.6289,0.6286,0.6286,0.6286,0.6286,0.6286,0.6286,0.6289,0.6293,0.6293,0.6296,0.6509,0.751,0.8514,0.9508,1.0504,1.152,1.2278,1.2278,1.2278,1.2198,1.1935,1.1875,1.1788,1.1466,1.1406,1.1406,1.1399,1.1392,1.1299,1.1022,1.0998,1.0891,1.0626,1.0609,1.0609,1.0609,1.0586,1.0579,1.0579,1.0589,1.0566,1.0566,1.0566,1.0566,1.0566,1.0566,1.0566,1.0566,1.0566,1.0566,1.0566,1.0566,1.0589,1.0579,1.0579,1.0586,0.0,0.0,0.0,0.0,0.0,0.0,0.0,0.0,0.0,0.0,0.0572,0.1447,0.2676,0.3562,0.4507,0.5791,0.6115,0.6219,0.6293,0.6129,0.6032,0.6101,0.6042,0.6032,0.6101,0.6219,0.0,0.63,0.63,0.63,0.63,0.63,0.63,0.63,0.6392,0.6443,0.6443,0.6522,0.6573,0.6573,0.6471,0.6392,0.63,0.63,0.63,0.63,0.63,0.63,0.63,0.63,0.63,0.63,0.63,0.63,0.63,0.63,0.63,0.63,0.63,0.63,0.63,0.63,0.63,0.63,0.63,0.63,0.6377,0.6718,0.7538,0.8542,0.9537,1.0546,1.1465,1.215,1.2305,1.2278,1.2178,1.2176,1.2131,1.2024,1.2004,1.1944,1.175,1.1741,1.1634,1.1306,1.0955,1.0707,1.06,1.0609,1.0609,1.0609,1.0609,1.0609,1.0609,1.0609,1.0609,1.0609,1.0609,1.0609,1.0609,1.0609,1.0609,1.0609,1.0609,1.0609,1.0609,1.0609,1.0609,1.0593,1.0771,1.0865,0.0,0.0,0.0,0.0,0.0,0.0,0.0,0.0,0.0,0.0,0.0804,0.1779,0.2718,0.3783,0.4844,0.5847,0.6112,0.6216,0.6293,0.6129,0.6032,0.6105,0.6112,0.6132,0.6183,0.6348,0.0,0.6378,0.6375,0.6375,0.6375,0.6375,0.6375,0.6375,0.6463,0.6518,0.6573,0.6651,0.6702,0.6698,0.662,0.6498,0.6375,0.6375,0.6347,0.63,0.63,0.63,0.63,0.63,0.63,0.63,0.63,0.63,0.63,0.63,0.63,0.63,0.63,0.63,0.63,0.63,0.63,0.63,0.63,0.63,0.63,0.63,0.7022,0.7955,0.8599,0.9518,1.0439,1.1081,1.123,1.1323,1.1694,1.1768,1.1768,1.1768,1.2058,1.2128,1.161,1.1734,1.1839,1.1617,1.1176,1.0885,1.0885,1.0885,1.0885,1.0885,1.0885,1.0845,1.0754,1.0825,1.0798,1.0606,1.0687,1.07,1.0593,1.0609,1.064,1.0747,1.0747,1.0784,1.0885,1.0784,1.0784,1.0885,1.0955,1.1049,0.0,0.0,0.0,0.0,0.0,0.0,0.0,0.0,0.0,0.0,0.0737,0.1685,0.2695,0.3668,0.4671,0.5811,0.6012,0.6076,0.6279,0.6135,0.6095,0.6282,0.6306,0.6364,0.6481,0.661,0.0,0.6525,0.0,0.6505,0.6505,0.6505,0.6505,0.6505,0.6512,0.6586,0.6712,0.6719,0.6719,0.6712,0.6712,0.663,0.6505,0.6505,0.645,0.6323,0.6323,0.6317,0.631,0.631,0.6306,0.63,0.63,0.63,0.63,0.63,0.63,0.63,0.63,0.63,0.63,0.63,0.63,0.63,0.63,0.63,0.63,0.63,0.6984,0.7725,0.7783,0.8504,0.9239,0.9296,0.9296,0.9556,1.0522,1.0714,1.0714,1.0714,1.1484,1.1848,1.0901,1.135,1.1837,1.1837,1.1615,1.1422,1.1395,1.1406,1.1406,1.1406,1.1406,1.1299,1.1042,1.1252,1.1172,1.0673,1.0878,1.0912,1.0646,1.0633,1.0767,1.1025,1.1015,1.1149,1.1406,1.1149,1.1156,1.1382,1.1162,1.1182,0.0,0.0,0.0,0.0,0.0,0.0,0.0,0.0,0.0,0.0,0.1322,0.255,0.2719,0.4274,0.5614,0.5816,0.6051,0.6236,0.6293,0.6265,0.6236,0.6293,0.6395,0.647,0.6488,0.661,0.0,0.0,0.6709,0.6644,0.6644,0.6644,0.6644,0.6644,0.6753,0.6809,0.685,0.6951,0.6951,0.685,0.685,0.6769,0.6644,0.6644,0.6624,0.6586,0.6586,0.6542,0.6457,0.6457,0.6395,0.63,0.63,0.63,0.63,0.63,0.63,0.63,0.63,0.63,0.63,0.63,0.63,0.63,0.63,0.63,0.63,0.63,0.649,0.6853,0.761,0.7993,0.837,0.9126,0.9296,0.9372,0.9631,0.9688,0.9688,0.9688,0.99,0.9989,0.9725,1.0457,1.1083,1.1083,1.1644,1.1906,1.1466,1.1406,1.1406,1.1406,1.1406,1.1362,1.1306,1.1366,1.1346,1.1192,1.1259,1.1266,1.1192,1.1209,1.1236,1.1299,1.1299,1.1339,1.1406,1.1332,1.1339,1.1395,1.1594,1.1701,0.0,0.0,0.0,0.0,0.0,0.0,0.0,0.0,0.0115,0.0498,0.177,0.289,0.3142,0.4624,0.5806,0.5722,0.5962,0.6202,0.6289,0.63,0.63,0.63,0.6464,0.6593,0.6593,0.6766,0.6908,0.0,0.6864,0.6779,0.6779,0.6779,0.6779,0.6779,0.686,0.6938,0.6977,0.7055,0.7055,0.6977,0.6977,0.6924,0.6779,0.6779,0.6763,0.6702,0.0,0.6651,0.6593,0.6593,0.6546,0.6467,0.6419,0.6395,0.6385,0.6323,0.63,0.63,0.63,0.63,0.63,0.63,0.63,0.63,0.63,0.63,0.63,0.63,0.63,0.6435,0.7003,0.7138,0.7288,0.784,0.7993,0.8103,0.8542,0.8637,0.8765,0.9221,0.8941,0.8789,0.9221,0.9763,1.0134,1.0134,1.1,1.1524,1.1178,1.152,1.1793,1.1793,1.1793,1.1757,1.163,1.1737,1.1679,1.1426,1.155,1.1546,1.1412,1.1406,1.1472,1.1617,1.1623,1.1683,1.1793,1.1683,1.1683,1.1793,1.1868,1.1955,0.0,0.0,0.0,0.0,0.0,0.0,0.0,0.0075,0.037,0.1146,0.2117,0.3025,0.3687,0.4778,0.5583,0.5603,0.5819,0.6066,0.6279,0.6317,0.6327,0.6327,0.6573,0.6729,0.6729,0.6958,0.7095,0.7095,0.698,0.6935,0.6935,0.6935,0.6935,0.6935,0.6935,0.697,0.7095,0.7095,0.7095,0.7095,0.7095,0.7031,0.6935,0.6935,0.6864,0.6759,0.0,0.0,0.6729,0.6729,0.6709,0.6658,0.6546,0.6481,0.645,0.6344,0.63,0.63,0.63,0.63,0.63,0.63,0.63,0.63,0.63,0.63,0.63,0.63,0.63,0.63,0.63,0.63,0.63,0.63,0.6313,0.6553,0.7407,0.7591,0.7859,0.8727,0.8199,0.7878,0.8751,0.9017,0.9107,0.9107,0.9951,1.0652,1.0783,1.1675,1.2305,1.2305,1.2305,1.2204,1.1969,1.2176,1.2084,1.1559,1.1784,1.181,1.1533,1.1526,1.1663,1.1942,1.1942,1.2069,1.2305,1.2069,1.2076,1.2291,1.2062,1.2076,0.0,0.0,0.0,0.0,0.0,0.0,0.0,0.0476,0.0991,0.1243,0.2441,0.3524,0.3756,0.4699,0.5477,0.5586,0.5819,0.6066,0.6279,0.6402,0.6474,0.6474,0.6705,0.6867,0.6867,0.6997,0.0,0.0,0.0,0.7058,0.7058,0.7058,0.7058,0.7058,0.7058,0.7071,0.7095,0.7095,0.7095,0.7095,0.7095,0.7085,0.7058,0.7058,0.7045,0.7021,0.0,0.0,0.6867,0.6867,0.6742,0.6529,0.6501,0.6439,0.6334,0.631,0.63,0.63,0.63,0.63,0.63,0.63,0.63,0.63,0.63,0.63,0.63,0.63,0.63,0.63,0.63,0.63,0.63,0.63,0.6388,0.6482,0.6553,0.6567,0.6606,0.6795,0.6679,0.6625,0.6795,0.7518,0.8065,0.8065,0.8917,0.9857,1.0696,1.1675,1.2305,1.2305,1.2305,1.2278,1.2231,1.2271,1.2258,1.2158,1.2198,1.2204,1.2151,1.2151,1.2171,1.2225,1.2225,1.2251,1.2305,1.2251,1.2251,1.2305,1.2251,1.2258,0.0,0.0,0.0,0.0,0.0,0.0113,0.0576,0.089,0.1382,0.2397,0.3135,0.3732,0.419,0.4801,0.5264,0.5322,0.5586,0.5908,0.6255,0.6358,0.644,0.6593,0.6769,0.6908,0.6908,0.7014,0.7095,0.7095,0.0,0.7095,0.7095,0.7095,0.7095,0.7095,0.7095,0.7095,0.7095,0.7095,0.7095,0.7095,0.7095,0.7095,0.7095,0.7095,0.7095,0.7095,0.7095,0.0,0.6994,0.6994,0.6931,0.6803,0.6651,0.6569,0.6491,0.6358,0.63,0.63,0.63,0.63,0.63,0.63,0.63,0.63,0.63,0.63,0.63,0.63,0.63,0.63,0.63,0.63,0.63,0.63,0.6409,0.6454,0.633,0.6358,0.6388,0.6313,0.63,0.63,0.63,0.6698,0.7022,0.7022,0.7878,0.8689,0.9173,1.0115,1.1136,1.2187,1.2305,1.2305,1.2305,1.2305,1.2305,1.2305,1.2305,1.2305,1.2305,1.2305,1.2305,1.2305,1.2305,1.2305,1.2305,1.2305,1.2305,1.2305,1.2305,1.2305,0.0,0.0,0.0,0.0,0.0,0.0186,0.0871,0.1069,0.1556,0.3192,0.3535,0.3773,0.4559,0.4865,0.5041,0.509,0.5389,0.5766,0.6235,0.6354,0.6474,0.6719,0.686,0.6951,0.6951,0.7031,0.0,0.7095,0.0,0.0,0.7095,0.7095,0.7095,0.7095,0.7095,0.7095,0.7095,0.6852,0.6738,0.6738,0.647,0.6356,0.6356,0.6628,0.6738,0.6738,0.6985,0.0,0.0,0.7095,0.7078,0.7028,0.682,0.6729,0.6671,0.646,0.6375,0.6351,0.6381,0.6371,0.6351,0.6381,0.6351,0.63,0.63,0.63,0.63,0.63,0.63,0.63,0.63,0.63,0.6317,0.6378,0.6437,0.6481,0.6433,0.6484,0.6508,0.6396,0.6395,0.6385,0.6351,0.6344,0.6334,0.6306,0.6965,0.7553,0.7763,0.8485,0.9669,1.1477,1.1848,1.1978,1.1978,1.2187,1.2305,1.2305,1.2305,1.2305,1.2305,1.2305,1.2305,1.2305,1.2305,1.2305,1.2305,1.2305,1.2305,1.2305,1.2305,1.2305,0.0,0.0,0.0,0.0,0.0,0.0018,0.0106,0.0628,0.1394,0.2408,0.2997,0.3603,0.4534,0.4714,0.4819,0.5056,0.5389,0.5766,0.6235,0.6512,0.6722,0.6867,0.6991,0.7078,0.7078,0.7088,0.7095,0.0,0.0,0.0,0.7095,0.7095,0.7095,0.7095,0.7095,0.7095,0.7095,0.6071,0.5558,0.5536,0.4439,0.3926,0.3948,0.5065,0.5558,0.5603,0.665,0.0,0.0,0.7095,0.7021,0.6924,0.6897,0.6803,0.6698,0.6671,0.6593,0.6491,0.6614,0.659,0.6495,0.6614,0.6498,0.63,0.63,0.63,0.63,0.63,0.63,0.63,0.63,0.63,0.6368,0.6597,0.6583,0.6566,0.6789,0.677,0.6675,0.6661,0.6661,0.6617,0.6498,0.6474,0.645,0.632,0.6377,0.6776,0.7687,0.7878,0.8351,0.9466,1.0396,1.0932,1.0932,1.1768,1.2305,1.2305,1.2305,1.2305,1.2305,1.2305,1.2305,1.2305,1.2305,1.2305,1.2305,1.2305,1.2305,1.2305,1.2305,1.2305,0.0,0.0,0.0,0.0,0.0,0.0291,0.1382,0.1782,0.2353,0.3768,0.4176,0.4356,0.4654,0.4705,0.4758,0.4953,0.5089,0.5403,0.6034,0.6204,0.6434,0.6857,0.6955,0.7004,0.0,0.0,0.7095,0.0,0.0,0.0,0.7095,0.7095,0.7095,0.7095,0.7095,0.7095,0.7095,0.596,0.5403,0.5381,0.4172,0.3592,0.3614,0.4105,0.4307,0.4352,0.4794,0.0,0.0,0.5285,0.5794,0.6939,0.6128,0.6218,0.6806,0.6732,0.6661,0.6617,0.6678,0.6661,0.662,0.6681,0.662,0.6546,0.6546,0.6546,0.6546,0.6546,0.6546,0.6525,0.6433,0.6426,0.6437,0.6556,0.6658,0.6756,0.6762,0.6796,0.6789,0.6719,0.6702,0.6681,0.6641,0.6631,0.661,0.6552,0.6467,0.6599,0.7068,0.7073,0.7205,0.7685,0.9029,0.9895,0.9895,1.0814,1.1409,1.1409,1.1978,1.2305,1.2305,1.2305,1.2305,1.2305,1.2305,1.2305,1.2305,1.2305,1.2305,1.2305,1.2305,1.2417,0.0,0.0,0.0,0.0,0.0,0.0327,0.1603,0.1835,0.2244,0.398,0.4253,0.4303,0.4687,0.4758,0.4806,0.4943,0.5041,0.5332,0.5988,0.6154,0.6397,0.6908,0.6968,0.6987,0.0,0.7095,0.7095,0.0,0.0,0.0,0.0,0.6267,0.6223,0.6583,0.6605,0.6425,0.6065,0.491,0.4332,0.4332,0.3105,0.2525,0.2547,0.2903,0.3059,0.3081,0.0,0.0,0.0,0.395,0.4572,0.5968,0.5024,0.5391,0.6455,0.6354,0.6505,0.6773,0.6796,0.6803,0.6773,0.6796,0.6809,0.6809,0.6809,0.677,0.6702,0.6702,0.6702,0.6675,0.6586,0.6559,0.6573,0.6617,0.6773,0.6891,0.6823,0.6894,0.6938,0.683,0.6809,0.6817,0.6776,0.6766,0.6753,0.6709,0.6631,0.66,0.6685,0.6627,0.66,0.6688,0.78,0.8637,0.8899,0.98,1.0359,1.0359,1.1298,1.1867,1.1867,1.215,1.2305,1.2305,1.2305,1.2345,1.245,1.245,1.2478,1.2572,1.2572,1.2751,0.0,0.0,0.0,0.0,0.0,0.0,0.0018,0.0034,0.0496,0.2182,0.2521,0.3009,0.4607,0.4903,0.4947,0.5073,0.5369,0.576,0.6235,0.6529,0.6803,0.7058,0.7095,0.7095,0.7095,0.7095,0.0,0.0,0.0,0.0,0.0,0.4283,0.4194,0.5381,0.5425,0.4843,0.3636,0.2436,0.1835,0.1812,0.0606,0.0045,0.0067,0.1277,0.1812,0.0,0.0,0.0,0.0,0.3614,0.3614,0.3636,0.3614,0.435,0.5423,0.5423,0.6034,0.6924,0.7045,0.7001,0.6928,0.7048,0.7092,0.7092,0.7092,0.6911,0.6702,0.6702,0.6702,0.6702,0.6698,0.6698,0.6736,0.6867,0.6904,0.6945,0.7061,0.7092,0.7092,0.7092,0.7092,0.7048,0.6928,0.6904,0.6853,0.6722,0.6698,0.6698,0.6702,0.6698,0.6698,0.6702,0.6719,0.7078,0.7942,0.8803,0.9315,0.9315,1.0265,1.0826,1.0826,1.1768,1.2305,1.2305,1.2305,1.2464,1.2796,1.2796,1.2938,1.318,1.318,1.334,0.0,0.0,0.0,0.0,0.0,0.0155,0.075,0.0889,0.1222,0.2401,0.3113,0.366,0.4064,0.4634,0.5129,0.5403,0.5525,0.5797,0.6368,0.6597,0.6773,0.6951,0.7038,0.7095,0.0,0.0,0.0,0.0,0.0,0.0,0.0,0.4261,0.377,0.415,0.4172,0.3994,0.3614,0.2413,0.179,0.179,0.0584,0.0,0.0022,0.0404,0.0,0.0,0.0,0.0,0.0,0.1478,0.2102,0.3525,0.2704,0.3105,0.4172,0.4172,0.4378,0.4777,0.5634,0.5913,0.6019,0.6836,0.7095,0.7095,0.7095,0.7031,0.6979,0.6979,0.6911,0.6837,0.6837,0.6837,0.6847,0.6894,0.696,0.7041,0.7085,0.7095,0.7095,0.7095,0.7095,0.7082,0.7038,0.7031,0.7014,0.6985,0.6897,0.687,0.6968,0.6894,0.6874,0.6968,0.6894,0.6919,0.7105,0.7987,0.8513,0.8414,0.9434,1.0019,0.992,1.0875,1.1526,1.1754,1.2337,1.2778,1.3066,1.3066,1.3113,1.3193,1.3393,1.3513,0.0,0.0,0.0,0.0,0.0,0.0137,0.0683,0.0812,0.1174,0.2444,0.3128,0.3694,0.4297,0.4842,0.5298,0.5566,0.5633,0.5875,0.6416,0.6654,0.6691,0.643,0.6432,0.0,0.0,0.0,0.0,0.0,0.0,0.0,0.0,0.2904,0.2236,0.2236,0.2681,0.2704,0.2236,0.15,0.1121,0.1121,0.0359,0.0,0.0,0.0,0.0,0.0,0.0,0.0,0.0,0.0314,0.0897,0.2169,0.141,0.1857,0.2925,0.2925,0.3213,0.3703,0.4463,0.4732,0.4843,0.5553,0.609,0.6451,0.6451,0.676,0.7095,0.7095,0.7034,0.6964,0.6964,0.6964,0.6964,0.6964,0.7034,0.7095,0.7095,0.7095,0.7095,0.7095,0.7095,0.7095,0.7095,0.7095,0.7095,0.7095,0.7021,0.6997,0.7085,0.7018,0.6997,0.7088,0.7018,0.6948,0.6853,0.734,0.7591,0.7523,0.8524,0.9101,0.901,0.9974,1.0603,1.0816,1.1806,1.2438,1.2705,1.3278,1.354,1.3547,1.3707,1.3787,0.0,0.0,0.0,0.0,0.0,0.0,0.0,0.0,0.0,0.2161,0.2611,0.3215,0.4916,0.5332,0.5474,0.5641,0.5762,0.5984,0.6341,0.6544,0.6415,0.0,0.541,0.0,0.0,0.0,0.0,0.0,0.0,0.0,0.0,0.0651,0.0,0.0,0.1077,0.1145,0.0,0.0,0.0,0.0,0.0,0.0,0.0,0.0,0.0,0.0,0.0,0.0,0.0,0.0,0.0,0.0,0.0,0.0695,0.1678,0.1678,0.2392,0.3349,0.3436,0.3481,0.3481,0.357,0.4352,0.527,0.527,0.6138,0.7095,0.7095,0.7095,0.7095,0.7095,0.7095,0.7095,0.7095,0.7095,0.7095,0.7095,0.7095,0.7095,0.7095,0.7095,0.7095,0.7095,0.7095,0.7095,0.7095,0.7095,0.7095,0.7095,0.7095,0.7095,0.7095,0.7095,0.7095,0.7095,0.6867,0.6725,0.6719,0.7607,0.8115,0.8102,0.9078,0.9617,0.9652,1.0831,1.1552,1.1804,1.3168,1.3843,1.3843,1.3934,1.3976,0.0,0.0,0.0,0.0,0.0,0.0,0.0,0.0,0.0118,0.0555,0.1744,0.2899,0.3521,0.4679,0.5712,0.6202,0.6311,0.6129,0.5517,0.4814,0.0,0.5647,0.4722,0.3905,0.0,0.0,0.0,0.0,0.0,0.0,0.0,0.0651,0.0,0.0,0.0273,0.0296,0.0,0.0,0.0,0.0,0.0,0.0,0.0,0.0,0.0,0.0,0.0,0.0,0.0,0.0,0.0,0.0,0.0,0.018,0.0426,0.0426,0.0606,0.0986,0.1902,0.2214,0.237,0.3303,0.3792,0.4016,0.4016,0.5464,0.7095,0.7095,0.7095,0.7095,0.7095,0.7095,0.7095,0.7095,0.7095,0.7095,0.7095,0.7095,0.7095,0.7095,0.7095,0.7095,0.7095,0.7095,0.7095,0.7095,0.7095,0.7095,0.7095,0.7095,0.7095,0.7095,0.7095,0.7095,0.7095,0.7034,0.6968,0.686,0.7167,0.7307,0.7215,0.8169,0.8823,0.9078,1.0225,1.0841,1.0915,1.1252,1.1413,1.1434,1.2312,1.2723,0.0,0.0,0.0,0.0,0.0,0.0,0.0,0.0,0.0118,0.0521,0.1374,0.2375,0.3415,0.3967,0.4742,0.6181,0.5522,0.4966,0.5276,0.0,0.3939,0.4868,0.3671,0.0,0.0,0.0,0.0,0.0,0.0,0.0,0.0,0.0362,0.0,0.0,0.0,0.0,0.0,0.0,0.0,0.0,0.0,0.0,0.0,0.0,0.0,0.0,0.0,0.0,0.0,0.0,0.0,0.0,0.0,0.0,0.0,0.0,0.0,0.009,0.074,0.0964,0.1076,0.1746,0.2324,0.2769,0.2769,0.4039,0.562,0.616,0.6694,0.7095,0.7095,0.7095,0.7095,0.7095,0.7095,0.7095,0.7095,0.7095,0.7095,0.7095,0.7095,0.7095,0.7095,0.7095,0.7095,0.7095,0.7095,0.7095,0.7095,0.7095,0.7095,0.7095,0.7095,0.7095,0.7095,0.7095,0.7061,0.6987,0.7055,0.7061,0.6987,0.7516,0.8139,0.8886,0.9514,1.0074,1.0611,1.0611,1.0611,1.0611,1.123,1.1509,0.0,0.0,0.0,0.0,0.0,0.0,0.0,0.0,0.0202,0.0956,0.1211,0.1822,0.3528,0.3231,0.3419,0.5517,0.4079,0.0,0.5085,0.401,0.3216,0.364,0.2409,0.0,0.0,0.0,0.0,0.0,0.0,0.0,0.0,0.0,0.0,0.0,0.0,0.0,0.0,0.0,0.0,0.0,0.0,0.0,0.0,0.0,0.0,0.0,0.0,0.0,0.0,0.0,0.0,0.0,0.0,0.0,0.0,0.0,0.0,0.0,0.0,0.0,0.0,0.0,0.0695,0.1522,0.1522,0.237,0.3549,0.4554,0.5802,0.6849,0.6849,0.6962,0.7095,0.7095,0.7095,0.7095,0.7095,0.7095,0.7095,0.7095,0.7095,0.7095,0.7095,0.7095,0.7095,0.7095,0.7095,0.7095,0.7095,0.7095,0.7095,0.7095,0.7095,0.7095,0.7095,0.7095,0.7095,0.7095,0.7095,0.7095,0.7095,0.7095,0.7577,0.8606,0.8627,0.91,1.007,1.007,1.007,1.007,1.0277,1.0379,0.0,0.0,0.0,0.0,0.0,0.0,0.0,0.0,0.0034,0.0168,0.0787,0.148,0.2054,0.2551,0.3086,0.3737,0.2692,0.2324,0.0,0.0,0.0978,0.2162,0.0,0.0,0.0,0.0,0.0,0.0,0.0,0.0,0.0,0.0,0.0,0.0,0.0,0.0,0.0,0.0,0.0,0.0,0.0,0.0,0.0,0.0,0.0,0.0,0.0,0.0,0.0,0.0,0.0,0.0,0.0,0.0,0.0,0.0,0.0,0.0,0.0,0.0,0.0,0.0,0.0135,0.0269,0.0269,0.1121,0.2124,0.2303,0.3953,0.5669,0.5669,0.6384,0.7095,0.7095,0.7095,0.7095,0.7095,0.7095,0.7095,0.7095,0.7095,0.7095,0.7095,0.7095,0.7095,0.7095,0.7095,0.7095,0.7095,0.7095,0.7095,0.7095,0.7095,0.7095,0.7095,0.7095,0.7095,0.7095,0.7095,0.7095,0.7095,0.7095,0.7183,0.7382,0.7382,0.7467,0.7639,0.7639,0.7639,0.7665,0.8797,0.9334,0.0,0.0,0.0,0.0,0.0,0.0,0.0,0.0,0.0,0.0,0.0319,0.0817,0.1566,0.149,0.1379,0.1533,0.0,0.1967,0.2727,0.1191,0.0508,0.0,0.0,0.0,0.0,0.0,0.0,0.0,0.0,0.0,0.0,0.0,0.0,0.0,0.0,0.0,0.0,0.0,0.0,0.0,0.0,0.0,0.0,0.0,0.0,0.0,0.0,0.0,0.0,0.0,0.0,0.0,0.0,0.0,0.0,0.0,0.0,0.0,0.0,0.0,0.0,0.0,0.0,0.0,0.0,0.0382,0.083,0.083,0.2571,0.4419,0.4419,0.4819,0.5373,0.6027,0.6182,0.6359,0.6962,0.7095,0.7095,0.7095,0.7185,0.7238,0.7109,0.7188,0.7238,0.7109,0.7095,0.7095,0.7095,0.7095,0.7095,0.7095,0.7095,0.7095,0.7095,0.7095,0.7095,0.7095,0.7095,0.7095,0.7095,0.7095,0.7095,0.7095,0.7095,0.7095,0.7095,0.7202,0.7265,0.7268,0.7964,0.8287,0.0,0.0,0.0,0.0,0.0,0.0,0.0,0.0,0.0,0.0,0.0,0.0246,0.108,0.056,0.0,0.0,0.0768,0.1407,0.1524,0.0642,0.0,0.0,0.0,0.0,0.0,0.0,0.0,0.0,0.0,0.0,0.0,0.0,0.0,0.0,0.0,0.0,0.0,0.0,0.0,0.0,0.0,0.0,0.0,0.0,0.0,0.0,0.0,0.0,0.0,0.0,0.0,0.0,0.0,0.0,0.0,0.0,0.0,0.0,0.0,0.0,0.0,0.0,0.0,0.0,0.0,0.0,0.0,0.0,0.1322,0.2815,0.3104,0.3392,0.3838,0.4754,0.4976,0.529,0.6448,0.6694,0.6795,0.712,0.7288,0.7369,0.7239,0.7346,0.7383,0.7242,0.7225,0.7212,0.7178,0.7202,0.7198,0.7102,0.7151,0.7158,0.7098,0.7151,0.7171,0.7171,0.7115,0.7095,0.7095,0.7095,0.7112,0.7171,0.7171,0.7188,0.7225,0.7366,0.7447,0.7454,0.758,0.7648,0.0,0.0,0.0,0.0,0.0,0.0,0.0,0.0,0.0,0.0,0.0,0.002,0.0101,0.0044,0.0,0.0,0.0074,0.0126,0.0151,0.0,0.0,0.0,0.0,0.0,0.0,0.0,0.0,0.0,0.0,0.0,0.0,0.0,0.0,0.0,0.0,0.0,0.0,0.0,0.0,0.0,0.0,0.0,0.0,0.0,0.0,0.0,0.0,0.0,0.0,0.0,0.0,0.0,0.0,0.0,0.0,0.0,0.0,0.0,0.0,0.0,0.0,0.0,0.0,0.0,0.0,0.0,0.0,0.0,0.0135,0.0516,0.1634,0.2769,0.3614,0.3703,0.3725,0.4061,0.5267,0.5514,0.5883,0.7144,0.7386,0.7437,0.7543,0.7573,0.758,0.7567,0.7567,0.7516,0.7396,0.7478,0.7458,0.7125,0.7268,0.7295,0.7109,0.7272,0.7379,0.7379,0.7198,0.7095,0.7095,0.7095,0.7185,0.7376,0.7379,0.7447,0.7567,0.758,0.7584,0.7587,0.7729,0.7794,0.0,0.0,0.0,0.0,0.0,0.0,0.0,0.0,0.0,0.0,0.0,0.0,0.0,0.0,0.0,0.0,0.0,0.0,0.0,0.0,0.0,0.0,0.0,0.0,0.0,0.0,0.0,0.0,0.0,0.0,0.0,0.0,0.0,0.0,0.0,0.0,0.0,0.0,0.0,0.0,0.0,0.0,0.0,0.0,0.0,0.0,0.0,0.0,0.0,0.0,0.0,0.0,0.0,0.0,0.0,0.0,0.0,0.0,0.0,0.0,0.0,0.0,0.0,0.0,0.0,0.0,0.0,0.0,0.0,0.0112,0.0561,0.1008,0.1545,0.2302,0.248,0.2815,0.4018,0.4283,0.4674,0.6025,0.6345,0.6655,0.7463,0.7672,0.7702,0.7614,0.76,0.758,0.7519,0.7563,0.7556,0.7415,0.7478,0.7489,0.7408,0.7478,0.7512,0.7512,0.7458,0.7405,0.7405,0.7405,0.7455,0.7512,0.7512,0.7543,0.76,0.7689,0.7733,0.7736,0.7858,0.7929,0.0,0.0,0.0,0.0,0.0,0.0,0.0,0.0,0.0,0.0,0.0,0.0,0.0,0.0,0.0,0.0,0.0,0.0,0.0,0.0,0.0,0.0,0.0,0.0,0.0,0.0,0.0,0.0,0.0,0.0,0.0,0.0,0.0,0.0,0.0,0.0,0.0,0.0,0.0,0.0,0.0,0.0,0.0,0.0,0.0,0.0,0.0,0.0,0.0,0.0,0.0,0.0,0.0,0.0,0.0,0.0,0.0,0.0,0.0,0.0,0.0,0.0,0.0,0.0,0.0,0.0,0.0,0.0,0.0,0.0,0.0,0.0,0.0202,0.1031,0.1232,0.1567,0.2769,0.3042,0.3439,0.4762,0.5446,0.6064,0.6948,0.7524,0.7824,0.7729,0.7716,0.7723,0.7672,0.7709,0.7719,0.7672,0.7628,0.76,0.76,0.7641,0.7665,0.7665,0.7712,0.7695,0.7604,0.76,0.7621,0.7665,0.7665,0.7689,0.7716,0.781,0.7858,0.7861,0.7966,0.7988,0.0,0.0,0.0,0.0,0.0,0.0,0.0,0.0,0.0,0.0,0.0,0.0,0.0,0.0,0.0,0.0,0.0,0.0,0.0,0.0,0.0,0.0,0.0,0.0,0.0,0.0,0.0,0.0,0.0,0.0,0.0,0.0,0.0,0.0,0.0,0.0,0.0,0.0,0.0,0.0,0.0,0.0,0.0,0.0,0.0,0.0,0.0,0.0,0.0,0.0,0.0,0.0,0.0,0.0,0.0,0.0,0.0,0.0,0.0,0.0,0.0,0.0,0.0,0.0,0.0,0.0,0.0,0.0,0.0,0.0,0.0,0.0,0.0,0.0,0.0,0.0337,0.1523,0.1775,0.2182,0.3525,0.4868,0.5823,0.5984,0.7107,0.7988,0.7988,0.7988,0.7959,0.7807,0.7922,0.7956,0.7804,0.7689,0.7604,0.7604,0.7733,0.7814,0.7814,0.7932,0.7885,0.7614,0.7604,0.7672,0.7811,0.7814,0.7864,0.7988,0.7988,0.7988,0.7988,0.7988,0.7988,0.0,0.0,0.0,0.0,0.0,0.0,0.0,0.0,0.0,0.0,0.0,0.0,0.0,0.0,0.0,0.0,0.0,0.0,0.0,0.0,0.0,0.0,0.0,0.0,0.0,0.0,0.0,0.0,0.0,0.0,0.0,0.0,0.0,0.0,0.0,0.0,0.0,0.0,0.0,0.0,0.0,0.0,0.0,0.0,0.0,0.0,0.0,0.0,0.0,0.0,0.0,0.0,0.0,0.0,0.0,0.0,0.0,0.0,0.0,0.0,0.0,0.0,0.0,0.0,0.0,0.0,0.0,0.0,0.0,0.0,0.0,0.0,0.0,0.0,0.0,0.009,0.0457,0.0535,0.0926,0.227,0.3613,0.4837,0.5822,0.7107,0.7988,0.7988,0.7988,0.7975,0.7952,0.7986,0.7996,0.7952,0.7908,0.7885,0.7885,0.7922,0.7946,0.7946,0.7989,0.7976,0.7888,0.7885,0.7905,0.7946,0.7946,0.7969,0.7988,0.7988,0.7988,0.7988,0.7988,0.7988,0.0,0.0,0.0,0.0,0.0,0.0,0.0,0.0,0.0,0.0,0.0,0.0,0.0,0.0,0.0,0.0,0.0,0.0,0.0,0.0,0.0,0.0,0.0,0.0,0.0,0.0,0.0,0.0,0.0,0.0,0.0,0.0,0.0,0.0,0.0,0.0,0.0,0.0,0.0,0.0,0.0,0.0,0.0,0.0,0.0,0.0,0.0,0.0,0.0,0.0,0.0,0.0,0.0,0.0,0.0,0.0,0.0,0.0,0.0,0.0,0.0,0.0,0.0,0.0,0.0,0.0,0.0,0.0,0.0,0.0,0.0,0.0,0.0,0.0,0.0,0.0,0.0,0.0,0.0242,0.1051,0.2284,0.3642,0.4972,0.6329,0.7385,0.7914,0.7988,0.7988,0.7988,0.7988,0.7988,0.7988,0.7988,0.7988,0.7988,0.7988,0.7988,0.7988,0.7988,0.7988,0.7988,0.7988,0.7988,0.7988,0.7988,0.7988,0.7988,0.7988,0.7988,0.7988,0.7988,0.7988,0.0,0.0,0.0,0.0,0.0,0.0,0.0,0.0,0.0,0.0,0.0,0.0,0.0,0.0,0.0,0.0,0.0,0.0,0.0,0.0,0.0,0.0,0.0,0.0,0.0,0.0,0.0,0.0,0.0,0.0,0.0,0.0,0.0,0.0,0.0,0.0,0.0,0.0,0.0,0.0,0.0,0.0,0.0,0.0,0.0,0.0,0.0,0.0,0.0,0.0,0.0,0.0,0.0,0.0,0.0,0.0,0.0,0.0,0.0,0.0,0.0,0.0,0.0,0.0,0.0,0.0,0.0,0.0,0.0,0.0,0.0,0.0,0.0,0.0,0.0,0.0,0.0,0.0,0.0,0.0,0.1071,0.2388,0.3615,0.5022,0.6456,0.7789,0.7988,0.7988,0.7988,0.7988,0.7988,0.7988,0.7988,0.7988,0.7988,0.7988,0.7988,0.7988,0.7988,0.7988,0.7988,0.7988,0.7988,0.7988,0.7988,0.7988,0.7988,0.7988,0.7988,0.7988,0.7988,0.7988,0.0,0.0,0.0,0.0,0.0,0.0,0.0,0.0,0.0,0.0,0.0,0.0,0.0,0.0,0.0,0.0,0.0,0.0,0.0,0.0,0.0,0.0,0.0,0.0,0.0,0.0,0.0,0.0,0.0,0.0,0.0,0.0,0.0,0.0,0.0,0.0,0.0,0.0,0.0,0.0,0.0,0.0,0.0,0.0,0.0,0.0,0.0,0.0,0.0,0.0,0.0,0.0,0.0,0.0,0.0,0.0,0.0,0.0,0.0,0.0,0.0,0.0,0.0,0.0,0.0,0.0,0.0,0.0,0.0,0.0,0.0,0.0,0.0,0.0,0.0,0.0,0.0,0.0,0.0,0.0,0.108,0.2088,0.2388,0.442,0.6456,0.7789,0.7988,0.7988,0.7988,0.7988,0.7988,0.7988,0.7988,0.7988,0.7988,0.7988,0.7988,0.7988,0.7988,0.7988,0.7988,0.7988,0.7988,0.7988,0.7988,0.7988,0.7988,0.7988,0.7988,0.7988,0.7988,0.7988,0.0,0.0,0.0,0.0,0.0,0.0,0.0,0.0,0.0,0.0,0.0,0.0,0.0,0.0,0.0,0.0,0.0,0.0,0.0,0.0,0.0,0.0,0.0,0.0,0.0,0.0,0.0,0.0,0.0,0.0,0.0,0.0,0.0,0.0,0.0,0.0,0.0,0.0,0.0,0.0,0.0,0.0,0.0,0.0,0.0,0.0,0.0,0.0,0.0,0.0,0.0,0.0,0.0,0.0,0.0,0.0,0.0,0.0,0.0,0.0,0.0,0.0,0.0,0.0,0.0,0.0,0.0,0.0,0.0,0.0,0.0,0.0,0.0,0.0,0.0,0.0,0.0,0.0,0.0,0.0,0.0555,0.1234,0.1887,0.4221,0.6232,0.6933,0.7587,0.7988,0.7988,0.7988,0.7988,0.7988,0.7988,0.7988,0.7988,0.7988,0.7988,0.7988,0.7988,0.7988,0.7988,0.7988,0.7988,0.7988,0.7988,0.7988,0.7988,0.7988,0.7988,0.7988,0.7988,0.7988,0.0,0.0,0.0,0.0,0.0,0.0,0.0,0.0,0.0,0.0,0.0,0.0,0.0,0.0,0.0,0.0,0.0,0.0,0.0,0.0,0.0,0.0,0.0,0.0,0.0,0.0,0.0,0.0,0.0,0.0,0.0,0.0,0.0,0.0,0.0,0.0,0.0,0.0,0.0,0.0,0.0,0.0,0.0,0.0,0.0,0.0,0.0,0.0,0.0,0.0,0.0,0.0,0.0,0.0,0.0,0.0,0.0,0.0,0.0,0.0,0.0,0.0,0.0,0.0,0.0,0.0,0.0,0.0,0.0,0.0,0.0,0.0,0.0,0.0,0.0,0.0,0.0,0.0,0.0,0.0,0.0,0.0429,0.1762,0.3844,0.5477,0.5929,0.6933,0.7739,0.7963,0.7988,0.7988,0.7988,0.7988,0.7988,0.7988,0.7789,0.7662,0.7662,0.7662,0.7662,0.7662,0.7889,0.7988,0.7988,0.7988,0.7988,0.7988,0.7988,0.7988,0.7988,0.7988,0.7988,0.0,0.0,0.0,0.0,0.0,0.0,0.0,0.0,0.0,0.0,0.0,0.0,0.0,0.0,0.0,0.0,0.0,0.0,0.0,0.0,0.0,0.0,0.0,0.0,0.0,0.0,0.0,0.0,0.0,0.0,0.0,0.0,0.0,0.0,0.0,0.0,0.0,0.0,0.0,0.0,0.0,0.0,0.0,0.0,0.0,0.0,0.0,0.0,0.0,0.0,0.0,0.0,0.0,0.0,0.0,0.0,0.0,0.0,0.0,0.0,0.0,0.0,0.0,0.0,0.0,0.0,0.0,0.0,0.0,0.0,0.0,0.0,0.0,0.0,0.0,0.0,0.0,0.0,0.0,0.0,0.0,0.0429,0.1762,0.2289,0.3317,0.5652,0.6154,0.6681,0.7864,0.7988,0.7988,0.7988,0.7988,0.7988,0.7988,0.6933,0.6254,0.6254,0.6254,0.6254,0.6254,0.7385,0.7988,0.7988,0.7988,0.7988,0.7988,0.7988,0.7988,0.7988,0.7988,0.7988,0.0,0.0,0.0,0.0,0.0,0.0,0.0,0.0,0.0,0.0,0.0,0.0,0.0,0.0,0.0,0.0,0.0,0.0,0.0,0.0,0.0,0.0,0.0,0.0,0.0,0.0,0.0,0.0,0.0,0.0,0.0,0.0,0.0,0.0,0.0,0.0,0.0,0.0,0.0,0.0,0.0,0.0,0.0,0.0,0.0,0.0,0.0,0.0,0.0,0.0,0.0,0.0,0.0,0.0,0.0,0.0,0.0,0.0,0.0,0.0,0.0,0.0,0.0,0.0,0.0,0.0,0.0,0.0,0.0,0.0,0.0,0.0,0.0,0.0,0.0,0.0,0.0,0.0,0.0,0.0,0.0,0.0177,0.0782,0.1511,0.2665,0.4595,0.5525,0.6204,0.6808,0.6883,0.6883,0.6883,0.6883,0.6883,0.6883,0.6331,0.5677,0.492,0.487,0.5222,0.5979,0.6556,0.7235,0.7988,0.7988,0.7988,0.7988,0.7988,0.7988,0.7988,0.7988,0.7988,0.0,0.0,0.0,0.0,0.0,0.0,0.0,0.0,0.0,0.0,0.0,0.0,0.0,0.0,0.0,0.0,0.0,0.0,0.0,0.0,0.0,0.0,0.0,0.0,0.0,0.0,0.0,0.0,0.0,0.0,0.0,0.0,0.0,0.0,0.0,0.0,0.0,0.0,0.0,0.0,0.0,0.0,0.0,0.0,0.0,0.0,0.0,0.0,0.0,0.0,0.0,0.0,0.0,0.0,0.0,0.0,0.0,0.0,0.0,0.0,0.0,0.0,0.0,0.0,0.0,0.0,0.0,0.0,0.0,0.0,0.0,0.0,0.0,0.0,0.0,0.0,0.0,0.0,0.0,0.0,0.0,0.0,0.0,0.0832,0.1938,0.3291,0.4345,0.51,0.545,0.55,0.55,0.55,0.55,0.55,0.55,0.5175,0.4547,0.3566,0.349,0.3942,0.4949,0.5627,0.6304,0.698,0.7662,0.7988,0.7988,0.7988,0.7988,0.7988,0.7988,0.7988,0.0,0.0,0.0,0.0,0.0,0.0,0.0,0.0,0.0,0.0,0.0,0.0,0.0,0.0,0.0,0.0,0.0,0.0,0.0,0.0,0.0,0.0,0.0,0.0,0.0,0.0,0.0,0.0,0.0,0.0,0.0,0.0,0.0,0.0,0.0,0.0,0.0,0.0,0.0,0.0,0.0,0.0,0.0,0.0,0.0,0.0,0.0,0.0,0.0,0.0,0.0,0.0,0.0,0.0,0.0,0.0,0.0,0.0,0.0,0.0,0.0,0.0,0.0,0.0,0.0,0.0,0.0,0.0,0.0,0.0,0.0,0.0,0.0,0.0,0.0,0.0,0.0,0.0,0.0,0.0,0.0,0.0,0.0,0.005,0.0555,0.1913,0.2163,0.2665,0.3941,0.4116,0.4116,0.4116,0.4116,0.4116,0.4116,0.2941,0.2188,0.2113,0.2113,0.2138,0.2213,0.4647,0.5425,0.4241,0.6703,0.7988,0.7988,0.7988,0.7988,0.7988,0.7988,0.7988,0.0,0.0,0.0,0.0,0.0,0.0,0.0,0.0,0.0,0.0,0.0,0.0,0.0,0.0,0.0,0.0,0.0,0.0,0.0,0.0,0.0,0.0,0.0,0.0,0.0,0.0,0.0,0.0,0.0,0.0,0.0,0.0,0.0,0.0,0.0,0.0,0.0,0.0,0.0,0.0,0.0,0.0,0.0,0.0,0.0,0.0,0.0,0.0,0.0,0.0,0.0,0.0,0.0,0.0,0.0,0.0,0.0,0.0,0.0,0.0,0.0,0.0,0.0,0.0,0.0,0.0,0.0,0.0,0.0,0.0,0.0,0.0,0.0,0.0,0.0,0.0,0.0,0.0,0.0,0.0,0.0,0.0,0.0,0.0,0.0454,0.1787,0.1988,0.2163,0.2665,0.2715,0.2715,0.2715,0.2715,0.2715,0.2715,0.2289,0.1637,0.0782,0.0706,0.1109,0.1962,0.2916,0.3616,0.3991,0.5799,0.6706,0.6709,0.7587,0.7988,0.7988,0.7988,0.7988,0.0,0.0,0.0,0.0,0.0,0.0,0.0,0.0,0.0,0.0,0.0,0.0,0.0,0.0,0.0,0.0,0.0,0.0,0.0,0.0,0.0,0.0,0.0,0.0,0.0,0.0,0.0,0.0,0.0,0.0,0.0,0.0,0.0,0.0,0.0,0.0,0.0,0.0,0.0,0.0,0.0,0.0,0.0,0.0,0.0,0.0,0.0,0.0,0.0,0.0,0.0,0.0,0.0,0.0,0.0,0.0,0.0,0.0,0.0,0.0,0.0,0.0,0.0,0.0,0.0,0.0,0.0,0.0,0.0,0.0,0.0,0.0,0.0,0.0,0.0,0.0,0.0,0.0,0.0,0.0,0.0,0.0,0.0,0.0,0.0303,0.1184,0.1335,0.1335,0.1335,0.1335,0.1335,0.1335,0.1335,0.1335,0.1335,0.1335,0.0958,0.005,0.0,0.0404,0.1285,0.1762,0.2213,0.2639,0.442,0.5322,0.5322,0.7132,0.7988,0.7988,0.7988,0.7988,0.0,0.0,0.0,0.0,0.0,0.0,0.0,0.0,0.0,0.0,0.0,0.0,0.0,0.0,0.0,0.0,0.0,0.0,0.0,0.0,0.0,0.0,0.0,0.0,0.0,0.0,0.0,0.0,0.0,0.0,0.0,0.0,0.0,0.0,0.0,0.0,0.0,0.0,0.0,0.0,0.0,0.0,0.0,0.0,0.0,0.0,0.0,0.0,0.0,0.0,0.0,0.0,0.0,0.0,0.0,0.0,0.0,0.0,0.0,0.0,0.0,0.0,0.0,0.0,0.0,0.0,0.0,0.0,0.0,0.0,0.0,0.0,0.0,0.0,0.0,0.0,0.0,0.0,0.0,0.0,0.0,0.0,0.0,0.0,0.0,0.0,0.0,0.0,0.0,0.0,0.0,0.0,0.0,0.0,0.0,0.0,0.0,0.0,0.0,0.0,0.0,0.126,0.1335,0.0025,0.2589,0.3941,0.3941,0.6625,0.7963,0.7988,0.7988,0.7988,0.0,0.0,0.0,0.0,0.0,0.0,0.0,0.0,0.0,0.0,0.0,0.0,0.0,0.0,0.0,0.0,0.0,0.0,0.0,0.0,0.0,0.0,0.0,0.0,0.0,0.0,0.0,0.0,0.0,0.0,0.0,0.0,0.0,0.0,0.0,0.0,0.0,0.0,0.0,0.0,0.0,0.0,0.0,0.0,0.0,0.0,0.0,0.0,0.0,0.0,0.0,0.0,0.0,0.0,0.0,0.0,0.0,0.0,0.0,0.0,0.0,0.0,0.0,0.0,0.0,0.0,0.0,0.0,0.0,0.0,0.0,0.0,0.0,0.0,0.0,0.0,0.0,0.0,0.0,0.0,0.0,0.0,0.0,0.0,0.0,0.0,0.0,0.0,0.0,0.0,0.0,0.0,0.0,0.0,0.0,0.0,0.0,0.0,0.0,0.0,0.0,0.0353,0.0379,0.0,0.1686,0.2564,0.2564,0.5247,0.7058,0.7988,0.7988,0.7988,0.0,0.0,0.0,0.0,0.0,0.0,0.0,0.0,0.0,0.0,0.0,0.0,0.0,0.0,0.0,0.0,0.0,0.0,0.0,0.0,0.0,0.0,0.0,0.0,0.0,0.0,0.0,0.0,0.0,0.0,0.0,0.0,0.0,0.0,0.0,0.0,0.0,0.0,0.0,0.0,0.0,0.0,0.0,0.0,0.0,0.0,0.0,0.0,0.0,0.0,0.0,0.0,0.0,0.0,0.0,0.0,0.0,0.0,0.0,0.0,0.0,0.0,0.0,0.0,0.0,0.0,0.0,0.0,0.0,0.0,0.0,0.0,0.0,0.0,0.0,0.0,0.0,0.0,0.0,0.0,0.0,0.0,0.0,0.0,0.0,0.0,0.0,0.0,0.0,0.0,0.0,0.0,0.0,0.0,0.0,0.0,0.0,0.0,0.0,0.0,0.0,0.0,0.0,0.0,0.0756,0.1436,0.2013,0.4119,0.5852,0.7185,0.7739,0.7988,0.0,0.0,0.0,0.0,0.0,0.0,0.0,0.0,0.0,0.0,0.0,0.0,0.0,0.0,0.0,0.0,0.0,0.0,0.0,0.0,0.0,0.0,0.0,0.0,0.0,0.0,0.0,0.0,0.0,0.0,0.0,0.0,0.0,0.0,0.0,0.0,0.0,0.0,0.0,0.0,0.0,0.0,0.0,0.0,0.0,0.0,0.0,0.0,0.0,0.0,0.0,0.0,0.0,0.0,0.0,0.0,0.0,0.0,0.0,0.0,0.0,0.0,0.0,0.0,0.0,0.0,0.0,0.0,0.0,0.0,0.0,0.0,0.0,0.0,0.0,0.0,0.0,0.0,0.0,0.0,0.0,0.0,0.0,0.0,0.0,0.0,0.0,0.0,0.0,0.0,0.0,0.0,0.0,0.0,0.0,0.0,0.0,0.0,0.0,0.0,0.0,0.0,0.0,0.0,0.0,0.058,0.1787,0.3416,0.4845,0.6029,0.7385,0.7988,0.0,0.0,0.0,0.0,0.0,0.0,0.0,0.0,0.0,0.0,0.0,0.0,0.0,0.0,0.0,0.0,0.0,0.0,0.0,0.0,0.0,0.0,0.0,0.0,0.0,0.0,0.0,0.0,0.0,0.0,0.0,0.0,0.0,0.0,0.0,0.0,0.0,0.0,0.0,0.0,0.0,0.0,0.0,0.0,0.0,0.0,0.0,0.0,0.0,0.0,0.0,0.0,0.0,0.0,0.0,0.0,0.0,0.0,0.0,0.0,0.0,0.0,0.0,0.0,0.0,0.0,0.0,0.0,0.0,0.0,0.0,0.0,0.0,0.0,0.0,0.0,0.0,0.0,0.0,0.0,0.0,0.0,0.0,0.0,0.0,0.0,0.0,0.0,0.0,0.0,0.0,0.0,0.0,0.0,0.0,0.0,0.0,0.0,0.0,0.0,0.0,0.0,0.0,0.0,0.0,0.0126,0.0404,0.3895,0.5752,0.6029,0.7385,0.7988,0.0,0.0,0.0,0.0,0.0,0.0,0.0,0.0,0.0,0.0,0.0,0.0,0.0,0.0,0.0,0.0,0.0,0.0,0.0,0.0,0.0,0.0,0.0,0.0,0.0,0.0,0.0,0.0,0.0,0.0,0.0,0.0,0.0,0.0,0.0,0.0,0.0,0.0,0.0,0.0,0.0,0.0,0.0,0.0,0.0,0.0,0.0,0.0,0.0,0.0,0.0,0.0,0.0,0.0,0.0,0.0,0.0,0.0,0.0,0.0,0.0,0.0,0.0,0.0,0.0,0.0,0.0,0.0,0.0,0.0,0.0,0.0,0.0,0.0,0.0,0.0,0.0,0.0,0.0,0.0,0.0,0.0,0.0,0.0,0.0,0.0,0.0,0.0,0.0,0.0,0.0,0.0,0.0,0.0,0.0,0.0,0.0,0.0,0.0,0.0,0.0,0.0,0.0,0.0,0.0,0.0,0.0,0.2691,0.4346,0.5047,0.6379,0.736,0.0,0.0,0.0,0.0,0.0,0.0,0.0,0.0,0.0,0.0,0.0,0.0,0.0,0.0,0.0,0.0,0.0,0.0,0.0,0.0,0.0,0.0,0.0,0.0,0.0,0.0,0.0,0.0,0.0,0.0,0.0,0.0,0.0,0.0,0.0,0.0,0.0,0.0,0.0,0.0,0.0,0.0,0.0,0.0,0.0,0.0,0.0,0.0,0.0,0.0,0.0,0.0,0.0,0.0,0.0,0.0,0.0,0.0,0.0,0.0,0.0,0.0,0.0,0.0,0.0,0.0,0.0,0.0,0.0,0.0,0.0,0.0,0.0,0.0,0.0,0.0,0.0,0.0,0.0,0.0,0.0,0.0,0.0,0.0,0.0,0.0,0.0,0.0,0.0,0.0,0.0,0.0,0.0,0.0,0.0,0.0,0.0,0.0,0.0,0.0,0.0,0.0,0.0,0.0,0.0,0.0,0.0,0.1084,0.244,0.4041,0.5375,0.6709,0.0,0.0,0.0,0.0,0.0,0.0,0.0,0.0,0.0,0.0,0.0,0.0,0.0,0.0,0.0,0.0,0.0,0.0,0.0,0.0,0.0,0.0,0.0,0.0,0.0,0.0,0.0,0.0,0.0,0.0,0.0,0.0,0.0,0.0,0.0,0.0,0.0,0.0,0.0,0.0,0.0,0.0,0.0,0.0,0.0,0.0,0.0,0.0,0.0,0.0,0.0,0.0,0.0,0.0,0.0,0.0,0.0,0.0,0.0,0.0,0.0,0.0,0.0,0.0,0.0,0.0,0.0,0.0,0.0,0.0,0.0,0.0,0.0,0.0,0.0,0.0,0.0,0.0,0.0,0.0,0.0,0.0,0.0,0.0,0.0,0.0,0.0,0.0,0.0,0.0,0.0,0.0,0.0,0.0,0.0,0.0,0.0,0.0,0.0,0.0,0.0,0.0,0.0,0.0,0.0,0.0,0.0,0.0151,0.1536,0.4041,0.5375,0.6709,0.0,0.0,0.0,0.0,0.0,0.0,0.0,0.0,0.0,0.0,0.0,0.0,0.0,0.0,0.0,0.0,0.0,0.0,0.0,0.0,0.0,0.0,0.0,0.0,0.0,0.0,0.0,0.0,0.0,0.0,0.0,0.0,0.0,0.0,0.0,0.0,0.0,0.0,0.0,0.0,0.0,0.0,0.0,0.0,0.0,0.0,0.0,0.0,0.0,0.0,0.0,0.0,0.0,0.0,0.0,0.0,0.0,0.0,0.0,0.0,0.0,0.0,0.0,0.0,0.0,0.0,0.0,0.0,0.0,0.0,0.0,0.0,0.0,0.0,0.0,0.0,0.0,0.0,0.0,0.0,0.0,0.0,0.0,0.0,0.0,0.0,0.0,0.0,0.0,0.0,0.0,0.0,0.0,0.0,0.0,0.0,0.0,0.0,0.0,0.0,0.0,0.0,0.0,0.0,0.0,0.0,0.0,0.0,0.0983,0.2864,0.4218,0.555,0.0,0.0,0.0,0.0,0.0,0.0,0.0,0.0,0.0,0.0,0.0,0.0,0.0,0.0,0.0,0.0,0.0,0.0,0.0,0.0,0.0,0.0,0.0,0.0,0.0,0.0,0.0,0.0,0.0,0.0,0.0,0.0,0.0,0.0,0.0,0.0,0.0,0.0,0.0,0.0,0.0,0.0,0.0,0.0,0.0,0.0,0.0,0.0,0.0,0.0,0.0,0.0,0.0,0.0,0.0,0.0,0.0,0.0,0.0,0.0,0.0,0.0,0.0,0.0,0.0,0.0,0.0,0.0,0.0,0.0,0.0,0.0,0.0,0.0,0.0,0.0,0.0,0.0,0.0,0.0,0.0,0.0,0.0,0.0,0.0,0.0,0.0,0.0,0.0,0.0,0.0,0.0,0.0,0.0,0.0,0.0,0.0,0.0,0.0,0.0,0.0,0.0,0.0,0.0,0.0,0.0,0.0,0.0,0.0504,0.1486,0.2815,0.4168,0.0,0.0,0.0,0.0,0.0,0.0,0.0,0.0,0.0,0.0,0.0,0.0,0.0,0.0,0.0,0.0,0.0,0.0,0.0,0.0,0.0,0.0,0.0,0.0,0.0,0.0,0.0,0.0,0.0,0.0,0.0,0.0,0.0,0.0,0.0,0.0,0.0,0.0,0.0,0.0,0.0,0.0,0.0,0.0,0.0,0.0,0.0,0.0,0.0,0.0,0.0,0.0,0.0,0.0,0.0,0.0,0.0,0.0,0.0,0.0,0.0,0.0,0.0,0.0,0.0,0.0,0.0,0.0,0.0,0.0,0.0,0.0,0.0,0.0,0.0,0.0,0.0,0.0,0.0,0.0,0.0,0.0,0.0,0.0,0.0,0.0,0.0,0.0,0.0,0.0,0.0,0.0,0.0,0.0,0.0,0.0,0.0,0.0,0.0,0.0,0.0,0.0,0.0,0.0,0.0,0.0,0.0,0.0,0.0025,0.0101,0.1436,0.279,0.0,0.0,0.0,0.0,0.0,0.0,0.0,0.0,0.0,0.0,0.0,0.0,0.0,0.0,0.0,0.0,0.0,0.0,0.0,0.0,0.0,0.0,0.0,0.0,0.0,0.0,0.0,0.0,0.0,0.0,0.0,0.0,0.0,0.0,0.0,0.0,0.0,0.0,0.0,0.0,0.0,0.0,0.0,0.0,0.0,0.0,0.0,0.0,0.0,0.0,0.0,0.0,0.0,0.0,0.0,0.0,0.0,0.0,0.0,0.0,0.0,0.0,0.0,0.0,0.0,0.0,0.0,0.0,0.0,0.0,0.0,0.0,0.0,0.0,0.0,0.0,0.0,0.0,0.0,0.0,0.0,0.0,0.0,0.0,0.0,0.0,0.0,0.0,0.0,0.0,0.0,0.0,0.0,0.0,0.0,0.0,0.0,0.0,0.0,0.0,0.0,0.0,0.0,0.0,0.0,0.0,0.0,0.0,0.0,0.0,0.0454,0.1385,0.0,0.0,0.0,0.0,0.0,0.0,0.0,0.0,0.0,0.0,0.0,0.0,0.0,0.0,0.0,0.0,0.0,0.0,0.0,0.0,0.0,0.0,0.0,0.0,0.0,0.0,0.0,0.0,0.0,0.0,0.0,0.0,0.0,0.0,0.0,0.0,0.0,0.0,0.0,0.0,0.0,0.0,0.0,0.0,0.0,0.0,0.0,0.0,0.0,0.0,0.0,0.0,0.0,0.0,0.0,0.0,0.0,0.0,0.0,0.0,0.0,0.0,0.0,0.0,0.0,0.0,0.0,0.0,0.0,0.0,0.0,0.0,0.0,0.0,0.0,0.0,0.0,0.0,0.0,0.0,0.0,0.0,0.0,0.0,0.0,0.0,0.0,0.0,0.0,0.0,0.0,0.0,0.0,0.0,0.0,0.0,0.0,0.0,0.0,0.0,0.0,0.0,0.0,0.0,0.0,0.0,0.0,0.0,0.0,0.0,0.0,0.0454]},{"header":{"parameterUnit":"m.s-1","parameterCategory":1,"la1":30.6,"la2":29.2853,"lo1":-89.7004,"lo2":-87.6739,"dy":0.0162,"dx":0.0183,"nx":112,"ny":82,"refTime":"2024-09-20T12:00:00:Z","depth":0,"parameterNumber":3,"parameterNumberName":"V-component_of_WINDS"},"data":[0.0,0.0,0.0,0.0,0.0,0.0,0.0,0.0,0.0,0.0,0.0,0.0,0.0,0.0,0.0,0.0,0.0,0.0,0.0,0.0,0.0,0.0,0.0,0.0,0.0,0.0,0.0,0.0,0.0,0.0,0.0,0.0,0.0,0.0,0.0,0.0,0.0,0.0,0.0,0.0,0.0,0.0,0.0,0.0,0.0,0.0,0.0,0.0,0.0,0.0,0.0,0.0,0.0,0.0,0.0,0.0,0.0,0.0,0.0,0.0,0.0,0.0,0.0,0.0,0.0,0.0,0.0,0.0,0.0,0.0,0.0,0.0,0.0,0.0,0.0,0.0,0.0,0.0,0.0,0.0,0.0,0.0,0.0,0.0,0.0,0.0,0.0,0.0,0.0,0.0,1.9012,1.9754,1.9934,1.9399,1.7924,1.78,1.7214,1.5854,0.0,0.0,0.0,0.0,0.0,0.0,0.0,0.0,0.0,0.0,0.0,0.0,0.0,0.0,0.0,0.0,0.0,0.0,0.0,0.0,0.0,0.0,0.0,0.0,0.0,0.0,0.0,0.0,0.0,0.0,0.0,0.0,0.0,0.0,0.0,0.0,0.0,0.0,0.0,0.0,0.0,0.0,0.0,0.0,0.0,0.0,0.0,0.0,0.0,0.0,0.0,0.0,0.0,0.0,0.0,0.0,0.0,0.0,0.0,0.0,0.0,0.0,0.0,0.0,0.0,0.0,0.0,0.0,0.0,0.0,0.0,0.0,0.0,0.0,0.0,0.0,0.0,0.0,0.0,0.0,0.0,0.0,0.0,0.0,0.0,0.0,0.0,0.0,0.0,0.0,0.0,0.0,0.0,0.0,0.0,0.0,0.0,0.0,0.0,0.0,0.0,0.0,0.0,0.0,1.8245,1.8995,1.9625,1.9399,1.7924,1.78,1.7439,1.6592,0.0,0.0,0.0,0.0,0.0,0.0,0.0,0.0,0.0,0.0,0.0,0.0,0.0,0.0,0.0,0.0,0.0,0.0,0.0,0.0,0.0,0.0,0.0,0.0,0.0,0.0,0.0,0.0,0.0,0.0,0.0,0.0,0.0,0.0,0.0,0.0,0.0,0.0,0.0,0.0,0.0,0.0,0.0,0.0,0.0,0.0,0.0,0.0,0.0,0.0,0.0,0.0,0.0,0.0,0.0,0.0,0.0,0.0,0.0,0.0,0.0,0.0,0.0,0.0,0.0,0.0,0.0,0.0,0.0,0.0,0.0,0.0,0.0,0.0,0.0,0.0,0.0,0.0,0.0,0.0,0.0,0.0,0.0,0.0,0.0,0.0,0.0,0.0,0.0,0.0,0.0,0.0,0.0,0.0,0.0,0.0,0.0,0.0,0.0,0.0,0.0,0.0,0.0,1.9057,1.9112,1.9456,1.9805,1.9399,1.7924,1.78,1.7315,1.618,1.5786,0.0,0.0,0.0,0.0,0.0,0.0,0.0,0.0,0.0,0.0,0.0,0.0,0.0,0.0,0.0,0.0,0.0,0.0,0.0,0.0,0.0,0.0,0.0,0.0,0.0,0.0,0.0,0.0,0.0,0.0,0.0,0.0,0.0,0.0,0.0,0.0,0.0,0.0,0.0,0.0,0.0,0.0,0.0,0.0,0.0,0.0,0.0,0.0,0.0,0.0,0.0,0.0,0.0,0.0,0.0,0.0,0.0,0.0,0.0,0.0,0.0,0.0,0.0,0.0,0.0,0.0,0.0,0.0,0.0,0.0,0.0,0.0,0.0,0.0,0.0,0.0,0.0,0.0,0.0,0.0,0.0,0.0,0.0,0.0,0.0,0.0,0.0,0.0,0.0,0.0,0.0,0.0,0.0,0.0,0.0,0.0,0.0,0.0,0.0,0.0,0.0,0.0,2.0697,2.039,2.0042,2.0002,1.9399,1.7924,1.7636,1.6982,1.568,1.5443,0.0,0.0,0.0,0.0,0.0,0.0,0.0,0.0,0.0,0.0,0.0,0.0,0.0,0.0,0.0,0.0,0.0,0.0,0.0,0.0,0.0,0.0,0.0,0.0,0.0,0.0,0.0,0.0,0.0,0.0,0.0,0.0,0.0,0.0,0.0,0.0,0.0,0.0,0.0,0.0,0.0,0.0,0.0,0.0,0.0,0.0,0.0,0.0,0.0,0.0,0.0,0.0,0.0,0.0,0.0,0.0,0.0,0.0,0.0,0.0,0.0,0.0,0.0,0.0,0.0,0.0,0.0,0.0,0.0,0.0,0.0,0.0,0.0,0.0,0.0,0.0,0.0,0.0,0.0,0.0,0.0,0.0,0.0,0.0,0.0,0.0,0.0,0.0,0.0,0.0,0.0,0.0,0.0,0.0,0.0,0.0,0.0,0.0,0.0,0.0,0.0,0.0,2.1282,2.1586,2.0154,2.0002,1.9399,1.7924,1.7174,1.6434,1.5651,1.4965,0.0,0.0,0.0,0.0,0.0,0.0,0.0,0.0,0.0,0.0,0.0,0.0,0.0,0.0,0.0,0.0,0.0,0.0,0.0,0.0,0.0,0.0,0.0,0.0,0.0,0.0,0.0,0.0,0.0,0.0,0.0,0.0,0.0,0.0,0.0,0.0,0.0,0.0,0.0,0.0,0.0,0.0,0.0,0.0,0.0,0.0,0.0,0.0,0.0,0.0,0.0,0.0,0.0,0.0,0.0,0.0,0.0,0.0,0.0,0.0,0.0,0.0,0.0,0.0,0.0,0.0,0.0,0.0,0.0,0.0,0.0,0.0,0.0,0.0,0.0,0.0,0.0,0.0,0.0,0.0,0.0,0.0,0.0,0.0,0.0,0.0,0.0,0.0,0.0,0.0,0.0,0.0,0.0,0.0,0.0,0.0,0.0,0.0,0.0,0.0,0.0,0.0,2.095,2.1194,0.0,2.0002,1.9399,1.7924,1.7552,1.6881,1.5685,0.0,0.0,0.0,0.0,0.0,0.0,0.0,0.0,0.0,0.0,0.0,0.0,0.0,0.0,0.0,0.0,0.0,0.0,0.0,0.0,0.0,0.0,0.0,0.0,0.0,0.0,0.0,0.0,0.0,0.0,0.0,0.0,0.0,0.0,0.0,0.0,0.0,0.0,0.0,0.0,0.0,0.0,0.0,0.0,0.0,0.0,0.0,0.0,0.0,0.0,0.0,0.0,0.0,0.0,0.0,0.0,0.0,0.0,0.0,0.0,0.0,0.0,0.0,0.0,0.0,0.0,0.0,0.0,0.0,0.0,0.0,0.0,0.0,0.0,0.0,0.0,0.0,0.0,0.0,0.0,0.0,0.0,0.0,0.0,0.0,0.0,0.0,0.0,0.0,0.0,0.0,0.0,0.0,0.0,0.0,0.0,0.0,0.0,0.0,0.0,0.0,0.0,1.9744,2.0906,2.1143,0.0,2.0002,1.9399,1.7924,1.7591,1.6915,1.5685,0.0,0.0,0.0,0.0,0.0,0.0,0.0,0.0,0.0,0.0,0.0,0.0,0.0,0.0,0.0,0.0,0.0,0.0,0.0,0.0,0.0,0.0,0.0,0.0,0.0,0.0,0.0,0.0,0.0,0.0,0.0,0.0,0.0,0.0,0.0,0.0,0.0,0.0,0.0,0.0,0.0,0.0,0.0,0.0,0.0,0.0,0.0,0.0,0.0,0.0,0.0,0.0,0.0,0.0,0.0,0.0,0.0,0.0,0.0,0.0,0.0,0.0,0.0,0.0,0.0,0.0,0.0,0.0,0.0,0.0,0.0,0.0,0.0,0.0,0.0,0.0,0.0,0.0,0.0,0.0,0.0,0.0,0.0,0.0,0.0,0.0,0.0,0.0,0.0,0.0,0.0,0.0,0.0,0.0,0.0,0.0,0.0,0.0,0.0,0.0,0.0,0.0,1.9847,2.135,2.1705,2.0177,2.0008,1.9416,1.7935,1.7145,1.6384,0.0,0.0,0.0,0.0,0.0,0.0,0.0,0.0,0.0,0.0,0.0,0.0,0.0,0.0,0.0,0.0,0.0,0.0,0.0,0.0,0.0,0.0,0.0,0.0,0.0,0.0,0.0,0.0,0.0,0.0,0.0,0.0,0.0,0.0,0.0,0.0,0.0,0.0,0.0,0.0,0.0,0.0,0.0,0.0,0.0,0.0,0.0,0.0,0.0,0.0,0.0,0.0,0.0,0.0,0.0,0.0,0.0,0.0,0.0,0.0,0.0,0.0,0.0,0.0,0.0,0.0,0.0,0.0,0.0,0.0,0.0,0.0,0.0,0.0,0.0,0.0,0.0,0.0,0.0,0.0,0.0,0.0,0.0,0.0,0.0,0.0,0.0,0.0,0.0,0.0,0.0,0.0,0.0,0.0,0.0,0.0,0.0,0.0,0.0,0.0,0.0,0.0,0.0,1.9811,2.135,2.1931,2.094,2.0335,1.9602,1.8657,1.7896,1.6948,1.5685,0.0,0.0,0.0,0.0,0.0,0.0,0.0,0.0,0.0,0.0,0.0,0.0,0.0,0.0,0.0,0.0,0.0,0.0,0.0,0.0,0.0,0.0,0.0,0.0,0.0,0.0,0.0,0.0,0.0,0.0,0.0,0.0,0.0,0.0,0.0,0.0,0.0,0.0,0.0,0.0,0.0,0.0,0.0,0.0,0.0,0.0,0.0,0.0,0.0,0.0,0.0,0.0,0.0,0.0,0.0,0.0,0.0,0.0,0.0,0.0,0.0,0.0,0.0,0.0,0.0,0.0,0.0,0.0,0.0,0.0,0.0,0.0,0.0,0.0,0.0,0.0,0.0,0.0,0.0,0.0,0.0,0.0,0.0,0.0,0.0,0.0,0.0,0.0,0.0,0.0,0.0,0.0,0.0,0.0,0.0,0.0,0.0,0.0,0.0,0.0,0.0,0.0,2.0183,2.1584,2.2053,2.1024,2.0374,1.9585,1.8555,1.8059,1.7163,1.5697,0.0,0.0,0.0,0.0,0.0,0.0,0.0,0.0,0.0,0.0,0.0,0.0,0.0,0.0,0.0,0.0,0.0,0.0,0.0,0.0,0.0,0.0,0.0,0.0,0.0,0.0,0.0,0.0,0.0,0.0,0.0,0.0,0.0,0.0,0.0,0.0,0.0,0.0,0.0,0.0,0.0,0.0,0.0,0.0,0.0,0.0,0.0,0.0,0.0,0.0,0.0,0.0,0.0,0.0,0.0,0.0,0.0,0.0,0.0,0.0,0.0,0.0,0.0,0.0,0.0,0.0,0.0,0.0,0.0,0.0,0.0,0.0,0.0,0.0,0.0,0.0,0.0,0.0,0.0,0.0,0.0,0.0,0.0,0.0,0.0,0.0,0.0,0.0,0.0,0.0,0.0,0.0,0.0,0.0,0.0,0.0,0.0,0.0,0.0,0.0,0.0,0.0,2.065,2.19,2.2155,2.0818,2.0269,1.9467,1.8121,1.7884,1.7207,1.5826,0.0,0.0,0.0,0.0,0.0,0.0,0.0,0.0,0.0,0.0,0.0,0.0,0.0,0.0,0.0,0.0,0.0,0.0,0.0,0.0,0.0,0.0,0.0,0.0,0.0,0.0,0.0,0.0,0.0,0.0,0.0,0.0,0.0,0.0,0.0,0.0,0.0,0.0,0.0,0.0,0.0,0.0,0.0,0.0,0.0,0.0,0.0,0.0,0.0,0.0,0.0,0.0,0.0,0.0,0.0,0.0,0.0,0.0,0.0,0.0,1.9973,0.0,0.0,0.0,0.0,0.0,0.0,0.0,0.0,0.0,0.0,0.0,0.0,0.0,0.0,0.0,0.0,0.0,0.0,0.0,0.0,0.0,0.0,0.0,0.0,0.0,0.0,0.0,0.0,0.0,0.0,0.0,0.0,0.0,0.0,0.0,0.0,0.0,0.0,0.0,0.0,0.0,2.0108,2.1475,2.2269,2.1956,2.077,1.9873,1.9568,1.8476,1.7503,1.6811,1.6238,0.0,0.0,0.0,0.0,0.0,0.0,0.0,0.0,0.0,0.0,0.0,0.0,0.0,0.0,0.0,0.0,0.0,0.0,0.0,0.0,0.0,0.0,0.0,0.0,0.0,0.0,0.0,0.0,0.0,0.0,0.0,0.0,0.0,0.0,0.0,0.0,0.0,0.0,0.0,0.0,0.0,0.0,0.0,0.0,0.0,0.0,0.0,0.0,0.0,0.0,0.0,0.0,0.0,0.0,0.0,0.0,0.0,0.0,0.0,0.0,2.1566,0.0,0.0,0.0,0.0,0.0,0.0,0.0,0.0,0.0,0.0,0.0,0.0,0.0,0.0,0.0,0.0,0.0,0.0,0.0,0.0,0.0,0.0,0.0,0.0,0.0,0.0,0.0,0.0,0.0,0.0,0.0,0.0,0.0,0.0,0.0,0.0,0.0,0.0,0.0,0.0,2.1307,2.2347,2.2846,2.2485,2.1444,2.048,1.9772,1.8858,1.7973,1.7153,1.6804,0.0,0.0,0.0,0.0,0.0,0.0,0.0,0.0,0.0,0.0,0.0,0.0,0.0,0.0,0.0,0.0,0.0,0.0,0.0,0.0,0.0,0.0,0.0,0.0,0.0,0.0,0.0,0.0,0.0,0.0,0.0,0.0,0.0,0.0,0.0,0.0,0.0,0.0,0.0,0.0,0.0,0.0,0.0,0.0,0.0,0.0,0.0,0.0,0.0,0.0,0.0,0.0,0.0,2.3682,2.3682,2.3682,2.3682,2.4009,2.4493,2.3778,2.3778,2.424,0.0,0.0,0.0,0.0,0.0,0.0,0.0,0.0,0.0,0.0,0.0,0.0,0.0,0.0,0.0,0.0,0.0,0.0,0.0,0.0,0.0,0.0,0.0,0.0,0.0,2.2721,2.3029,0.0,0.0,0.0,0.0,0.0,0.0,0.0,0.0,0.0,0.0,0.0,0.0,2.267,2.3291,2.3381,2.2759,2.2087,2.1191,1.9974,1.9367,1.8656,1.7703,1.7528,1.6927,0.0,0.0,0.0,0.0,0.0,0.0,0.0,0.0,0.0,0.0,0.0,0.0,0.0,0.0,0.0,0.0,0.0,0.0,0.0,0.0,0.0,0.0,0.0,0.0,0.0,0.0,0.0,0.0,0.0,0.0,0.0,0.0,1.9065,1.9866,0.0,0.0,0.0,0.0,0.0,0.0,0.0,0.0,0.0,0.0,0.0,0.0,0.0,2.4375,2.4962,2.5714,2.6486,2.7239,2.7239,2.7239,2.7239,2.7239,2.6873,2.6255,2.6159,0.0,2.5077,2.4259,0.0,0.0,0.0,0.0,0.0,0.0,0.0,0.0,0.0,0.0,0.0,0.0,0.0,0.0,0.0,0.0,0.0,0.0,0.0,0.0,0.0,0.0,2.3882,2.3882,2.3951,2.4006,0.0,2.2786,2.1721,2.15,0.0,0.0,0.0,0.0,0.0,0.0,0.0,0.0,2.2214,2.2831,2.3223,2.3123,2.2462,2.1968,2.1761,2.0474,1.9716,1.979,1.845,1.7679,1.7724,1.7096,0.0,0.0,0.0,0.0,0.0,0.0,0.0,0.0,0.0,0.0,0.0,0.0,0.0,0.0,0.0,0.0,0.0,0.0,0.0,0.0,0.0,0.0,0.0,0.0,0.0,0.0,0.0,0.0,0.0,1.9027,2.0243,2.1544,2.1708,2.1831,0.0,0.0,0.0,0.0,0.0,0.0,0.0,0.0,0.0,2.5642,2.6048,2.6392,2.6755,2.714,2.7527,2.7893,2.7893,2.7893,2.7893,2.7893,2.7681,2.7332,2.7332,2.7101,2.6659,2.5313,2.5063,2.5469,0.0,0.0,0.0,0.0,0.0,2.5428,2.4947,2.4649,0.0,0.0,0.0,0.0,0.0,0.0,0.0,0.0,0.0,0.0,0.0,0.0,0.0,2.4194,2.4194,2.4194,2.4194,2.3644,2.302,0.0,2.2464,2.2336,2.1886,0.0,0.0,0.0,0.0,2.2893,2.3244,2.3562,2.3692,2.3505,2.3026,2.2557,2.2148,2.1315,2.0826,2.0874,2.0187,1.99,2.0166,1.9373,1.8548,0.0,0.0,0.0,0.0,0.0,0.0,0.0,0.0,0.0,0.0,0.0,0.0,0.0,0.0,0.0,0.0,0.0,0.0,0.0,0.0,0.0,0.0,0.0,0.0,0.0,0.0,0.0,0.0,2.0287,2.149,2.2958,2.3124,2.3124,0.0,0.0,0.0,0.0,0.0,0.0,2.5923,2.6579,2.7236,2.7873,2.8104,2.82,2.82,2.8431,2.8544,2.8544,2.8544,2.8544,2.8544,2.8544,2.8412,2.82,2.82,2.8085,2.7796,2.6503,2.6349,2.6928,2.6928,2.7332,2.7893,2.7893,2.781,2.7542,2.6672,2.6393,2.6169,2.4687,0.0,2.4462,2.3764,0.0,0.0,0.0,0.0,2.5593,2.5443,2.4805,2.4194,2.4194,2.4194,2.4194,2.4194,2.4194,2.4025,0.0,2.3304,2.3121,2.2528,0.0,0.0,0.0,0.0,2.3524,2.4116,2.4194,2.4099,2.3847,2.3599,2.3221,2.2676,2.2225,2.193,2.1823,2.1616,2.1598,2.179,2.118,2.0442,1.9624,0.0,0.0,0.0,0.0,0.0,0.0,0.0,0.0,0.0,0.0,0.0,0.0,0.0,0.0,0.0,0.0,0.0,0.0,0.0,0.0,0.0,0.0,0.0,0.0,0.0,0.0,0.0,0.0,0.0,2.3937,2.4031,0.0,0.0,0.0,0.0,2.5115,2.5983,2.6851,2.772,2.7816,2.7854,2.7893,2.8646,2.905,2.905,2.9868,3.0269,3.0269,3.0269,3.0269,3.0269,3.0269,2.9811,2.905,2.905,2.8607,2.7893,2.7816,2.7796,2.7835,2.7835,2.7854,2.7893,2.7893,2.789,2.7767,2.6899,2.6999,2.7373,2.6464,2.6412,2.6697,2.6465,2.6457,0.0,0.0,2.5972,2.5413,2.5398,2.4805,2.4194,2.4194,2.4194,2.4194,2.4194,2.4194,2.4194,0.0,2.4135,2.4139,2.4084,0.0,2.4084,2.4135,2.4135,2.4153,2.419,2.4194,2.4185,2.4175,2.4161,2.4138,2.4101,2.3386,2.2928,2.2919,2.2194,2.1785,2.1794,2.1757,2.1331,2.0452,1.9601,0.0,0.0,0.0,0.0,0.0,0.0,0.0,0.0,0.0,0.0,0.0,0.0,0.0,0.0,0.0,0.0,0.0,0.0,0.0,0.0,0.0,0.0,0.0,0.0,0.0,0.0,0.0,0.0,2.5604,2.62,0.0,2.6549,2.6549,2.6662,2.6948,2.7739,2.8335,2.8665,2.9198,2.9503,2.9503,2.9791,2.9945,2.9945,3.0231,3.0404,3.0404,3.0404,3.0404,3.0404,3.0404,3.0231,2.9945,2.9945,2.9772,2.9503,2.9503,2.9179,2.8665,2.8665,2.9028,2.9503,2.9503,2.9503,2.9376,2.8366,2.8163,2.8212,2.7193,2.6885,2.6916,2.6975,2.727,2.7579,2.7567,2.7261,2.6825,2.6306,2.5571,2.4842,2.4323,2.4194,2.4194,2.4194,2.4194,2.4194,2.4194,2.4194,2.4194,2.4194,2.4194,2.4194,2.4194,2.4194,2.4194,2.4194,2.4194,2.4113,2.3902,2.3886,2.3886,2.3886,2.3627,2.3534,2.3753,2.3497,2.3332,2.3332,2.3332,2.2942,2.2125,2.1312,1.9844,0.0,0.0,0.0,0.0,0.0,0.0,0.0,0.0,0.0,0.0,0.0,0.0,0.0,0.0,0.0,0.0,0.0,0.0,0.0,0.0,0.0,0.0,0.0,0.0,0.0,0.0,2.5731,2.6909,2.7546,2.7893,2.7893,2.8143,2.8297,2.8297,2.9335,2.9989,2.9989,3.0772,3.1231,3.1231,3.1231,3.1231,3.1231,3.0962,3.0846,3.0846,3.0538,3.0404,3.0404,3.0404,3.0404,3.0404,3.0404,3.0404,3.0404,3.0404,3.0061,2.9544,2.9544,2.9888,3.0404,3.0404,3.0404,3.0296,2.9593,2.9159,2.8823,2.8313,2.8043,2.795,2.7945,2.8217,2.8511,2.8422,2.8104,2.7682,2.7145,2.6416,2.559,2.48,2.4819,2.4942,2.4653,2.4819,2.5016,2.5016,2.4575,2.4194,2.4194,2.4194,2.4194,2.4194,2.4194,2.4194,2.4194,2.4194,2.4108,2.3896,2.3876,2.3876,2.3876,2.3876,2.3952,2.418,2.4194,2.4194,2.4194,2.4194,2.3823,2.3024,2.1914,2.0556,1.8915,0.0,0.0,0.0,0.0,0.0,0.0,0.0,0.0,0.0,0.0,0.0,0.0,0.0,0.0,0.0,0.0,0.0,0.0,0.0,0.0,0.0,0.0,0.0,2.5483,2.5444,2.606,2.7739,2.795,2.7989,2.8027,2.8723,2.9184,2.9223,3.0775,3.1734,3.1734,3.2487,3.2891,3.2891,3.2891,3.2891,3.2891,3.2122,3.1734,3.1734,3.0885,3.0481,3.0481,3.0442,3.0442,3.0442,3.0404,3.0404,3.0404,3.0404,3.0404,3.0404,3.0404,3.0404,3.0404,3.0404,3.0404,3.0404,3.0404,2.9846,2.9227,2.9815,2.9999,2.992,2.9532,2.9394,2.9346,2.9084,2.8448,2.7829,2.7811,2.7218,2.6424,2.5631,2.603,2.6392,2.5613,2.6049,2.6607,2.6607,2.5346,2.4263,2.4263,2.4263,2.4263,2.4263,2.4263,0.0,2.425,2.425,2.4231,2.419,2.4194,2.4194,2.4194,2.4194,2.4194,2.4194,2.4194,2.4194,2.4194,2.4194,2.3823,2.3043,2.1387,2.0543,2.0543,0.0,0.0,0.0,0.0,0.0,0.0,0.0,0.0,0.0,0.0,0.0,0.0,0.0,0.0,0.0,0.0,0.0,0.0,0.0,0.0,0.0,2.6302,2.7215,2.7215,2.7705,2.8239,2.8703,2.9333,2.9964,3.0583,3.0852,3.1237,3.1817,3.2295,3.2564,3.2564,3.2776,3.2891,3.2891,3.2891,3.2891,3.2891,3.2679,3.2564,3.2564,3.2333,3.2215,3.2195,3.1618,3.1349,3.1311,3.0673,3.0404,3.0404,3.0404,3.0404,3.0404,3.0404,3.0404,3.0404,3.0404,3.0404,3.0404,3.0404,3.0116,2.9787,2.9944,2.9904,2.9754,2.9647,2.9518,2.9387,2.931,2.899,2.8534,2.7958,2.7646,2.7273,2.6465,2.6442,2.6534,2.6319,2.6442,2.6607,2.6607,2.624,2.5946,2.5946,2.5946,2.5946,2.5946,2.5946,0.0,2.5154,2.5062,2.4842,2.4268,2.4194,2.4194,2.4194,2.4194,2.4194,2.4194,2.4194,2.4194,2.4194,2.4194,2.4098,2.3878,2.2267,2.1441,0.0,0.0,0.0,0.0,0.0,0.0,0.0,0.0,0.0,0.0,0.0,0.0,0.0,0.0,0.0,0.0,0.0,0.0,0.0,0.0,0.0,0.0,2.7636,2.8593,2.8907,2.9047,2.9242,2.9602,3.0407,3.1138,3.1657,3.2006,3.2391,3.2852,3.3237,3.3433,3.3433,3.3795,3.3984,3.3984,3.3984,3.3984,3.3984,3.3622,3.3433,3.3433,3.3064,3.2891,3.2872,3.2429,3.2025,0.0,3.1157,3.0731,3.0404,3.0404,3.0404,0.0,0.0,0.0,0.0,0.0,3.0404,3.0404,3.0404,3.0302,3.0179,3.0179,3.0087,2.9962,2.9761,2.9626,2.9484,2.9294,2.9123,2.8889,2.8424,2.8295,2.8099,2.7291,2.7359,2.7501,2.7181,2.7378,2.7611,2.7611,0.0,0.0,2.7611,2.7047,2.6607,2.6607,2.6607,2.6424,2.5957,2.5613,2.5214,2.475,2.4396,2.4194,2.4194,2.4194,0.0,0.0,0.0,2.4194,2.4194,2.3878,0.0,0.0,0.0,0.0,0.0,0.0,0.0,0.0,2.151,2.1359,0.0,0.0,0.0,0.0,0.0,0.0,0.0,0.0,0.0,0.0,0.0,0.0,0.0,0.0,0.0,0.0,2.8863,2.965,3.0304,2.9737,2.9525,3.0308,3.1176,3.1734,3.1833,3.2564,3.3083,3.3199,3.3914,3.4356,3.4356,0.0,0.0,0.0,0.0,3.55,3.55,3.4737,3.4356,3.4337,3.3564,3.3199,3.3199,3.3083,3.266,3.1987,3.1891,3.1407,3.0673,3.0673,3.0673,3.0654,3.0462,3.0404,3.0404,3.0404,3.0404,0.0,0.0,0.0,0.0,3.0404,3.0373,3.0299,2.9945,2.9758,2.9584,2.9237,2.9078,2.8999,2.8999,2.8999,2.8822,2.8117,2.8479,2.8803,2.8081,2.8497,2.8999,2.8999,2.8999,2.8999,2.8999,2.7813,2.6864,2.6864,2.6864,2.6846,2.6754,2.6104,2.5636,2.5545,0.0,0.0,2.4341,2.425,2.4194,2.4194,2.4194,2.4194,2.4194,2.3506,2.3469,2.4194,2.3506,2.3488,2.4194,2.4194,2.4194,2.4158,2.1942,2.1703,0.0,0.0,0.0,0.0,0.0,0.0,0.0,0.0,0.0,0.0,0.0,0.0,0.0,0.0,0.0,2.8887,2.9692,3.0235,3.0371,3.025,3.0212,3.0385,3.1176,3.1948,3.2602,3.3433,3.4237,3.4942,3.5157,3.5253,3.5253,3.5404,0.0,3.55,3.55,3.55,3.55,3.5327,3.5253,3.5253,0.0,0.0,3.4962,3.4276,3.3856,3.3683,3.2968,3.2564,3.2429,3.2429,3.2429,3.2272,3.0923,3.0404,3.0404,3.0404,3.0404,3.0404,3.0404,3.0404,3.0404,3.0404,3.0254,3.0147,3.0548,3.0105,0.0,2.9863,2.95,2.8999,2.8999,2.8999,2.8968,2.8803,2.8895,2.8968,2.8803,2.8895,2.8999,2.8999,2.8999,2.8999,2.8999,2.8748,2.8546,2.8546,2.8546,2.829,2.764,2.7425,2.7095,2.6447,2.5645,2.5172,2.5172,2.4562,2.4194,2.4194,2.4194,2.4194,2.4194,2.4043,2.4043,2.4194,2.4043,2.4043,2.4194,2.4194,2.4194,2.4194,2.3712,2.3657,0.0,0.0,0.0,0.0,0.0,0.0,0.0,0.0,0.0,0.0,0.0,2.6094,2.7402,0.0,2.9041,2.9826,3.0227,3.0436,3.0396,3.0404,3.0558,3.1003,3.1792,3.2622,3.3471,3.4334,3.5023,3.5462,3.55,3.55,3.55,3.55,3.55,3.55,3.55,3.55,3.55,3.55,3.55,3.55,3.55,3.55,3.5481,3.5042,3.4603,3.4186,3.3741,3.3298,3.2891,3.2891,3.2891,3.2814,3.1984,3.1407,3.1003,3.0558,3.0404,3.0404,3.0404,3.0404,3.0404,3.0404,3.0599,3.088,3.1056,3.1041,3.0927,3.0517,3.0113,2.9686,2.9143,2.8999,2.8999,2.8999,2.8999,2.8999,2.8999,2.8999,2.8999,2.8999,2.8999,2.8999,2.8999,2.8999,2.8999,2.8999,2.8999,2.8858,2.8442,2.8049,2.7646,2.7236,2.6484,2.5847,2.5434,2.4653,2.4194,2.4194,2.4194,2.4194,2.4194,2.4194,2.4194,2.4194,2.4194,2.4194,2.4194,2.4194,2.4415,2.4805,2.4805,2.4805,0.0,0.0,0.0,0.0,0.0,0.0,0.0,2.4551,2.5156,2.6035,2.6894,2.793,2.9315,2.9652,2.996,3.0709,3.0771,3.0774,3.0864,3.0885,3.1215,3.2083,3.2602,3.3237,3.4129,3.4984,3.55,3.55,3.55,3.55,3.55,3.55,3.55,3.55,3.55,3.55,3.55,3.55,3.55,3.55,3.55,3.55,3.55,3.55,3.5119,3.4452,3.4452,3.4045,3.341,3.341,3.341,3.3391,3.3218,3.2756,3.2083,3.1215,3.0885,3.0885,3.0885,3.0885,3.0885,3.0885,3.1328,3.1856,3.1801,3.2137,3.2321,3.134,3.0958,3.061,2.9704,2.9464,2.9464,2.9464,2.9464,2.9427,2.9262,2.9225,2.9189,2.9023,2.8999,2.8999,2.8999,2.8999,2.8999,2.8999,2.8999,2.8999,2.8999,2.8424,2.8026,2.8026,2.731,2.6502,2.5705,2.5039,2.4667,2.4667,2.4667,2.4667,2.4667,2.4667,2.4667,2.4667,2.4667,2.4667,2.4667,2.4667,2.5002,2.5631,2.5797,2.5778,2.3398,2.3144,2.3477,2.5019,2.4902,2.498,0.0,2.7207,2.6953,2.7832,2.8691,2.9354,2.9494,3.0036,3.0745,3.154,3.1608,3.1813,3.2529,3.2622,3.2949,3.3817,3.3317,3.3237,3.4129,3.4984,3.55,3.55,3.55,3.55,3.55,3.55,3.55,3.55,3.55,3.55,3.55,3.55,3.55,3.55,3.55,3.55,3.55,3.55,3.5442,3.5346,3.5346,3.5308,3.5212,3.5212,3.5212,3.5135,3.4356,3.3991,3.3817,3.2949,3.2622,3.2622,3.2622,3.2622,3.2622,3.2622,3.2562,3.2638,3.3305,3.2911,3.2307,3.2646,3.2229,3.1578,3.1225,3.1133,3.1133,3.1133,3.1133,3.095,3.0222,3.0075,2.9855,2.9133,2.8999,2.8999,2.8999,2.8999,2.8999,2.8999,2.8999,2.8999,2.8999,2.8932,2.8877,2.8877,2.8154,2.7346,2.6534,2.6387,2.6332,2.6332,2.6332,2.6332,2.6332,2.6332,2.6332,2.6332,2.6332,2.6332,2.6332,2.6332,2.6387,2.6479,2.7205,2.715,2.4609,2.5371,2.6172,2.6406,2.6953,2.7578,2.8164,2.8418,2.8613,2.8984,3.0156,3.1073,3.0969,3.1583,3.2209,0.0,3.2447,3.2526,3.2852,3.2506,3.2506,3.3337,3.3122,3.3449,3.4811,3.5292,3.55,3.55,3.55,3.55,3.55,3.55,3.55,3.55,3.55,3.55,3.55,3.55,3.55,3.55,3.55,3.55,3.55,3.55,3.55,3.55,3.55,3.55,3.55,3.55,3.55,3.5462,3.51,3.4965,3.4795,3.341,3.2891,3.2891,3.2891,3.2891,3.2891,3.2891,3.3195,3.3601,3.3935,3.4075,3.4035,3.359,3.3118,3.2562,3.1831,3.1525,3.139,3.139,3.139,3.1317,3.0968,3.0895,3.0803,3.0467,3.0393,3.024,2.9782,2.9708,2.9537,2.9078,2.8999,2.8999,2.8999,2.8999,2.8999,2.8999,2.8282,2.7664,2.7328,2.6864,2.6607,2.6607,2.6607,2.6607,2.6607,2.6607,2.6607,2.6607,2.6607,2.6607,2.6607,2.6607,2.6846,2.731,2.7646,2.786,2.582,2.6973,2.791,2.7754,2.8848,2.9863,2.9453,3.0039,3.0644,3.0644,3.1641,3.2497,3.2357,3.2817,3.323,3.3322,3.3289,3.3333,3.3583,3.291,3.2699,3.3522,3.3391,3.3853,3.5346,3.55,3.55,3.55,3.55,3.55,3.55,3.55,3.55,3.55,3.55,3.55,3.55,3.55,3.55,3.55,3.55,3.55,3.55,3.55,3.55,3.55,3.55,3.55,3.55,3.55,3.55,3.55,3.55,3.55,3.5346,3.408,3.3619,3.3619,3.3619,3.3619,3.3619,3.3619,3.4045,3.4568,3.4568,3.5003,3.5311,3.4408,3.3976,3.3565,3.2684,3.2254,3.2051,3.2051,3.2051,3.1996,3.1776,3.1733,3.1666,3.1445,3.139,3.1207,3.0632,3.0522,3.0265,2.9445,2.9335,2.9244,2.9023,2.8999,2.8999,2.8999,2.8479,2.8136,2.8136,2.7598,2.7262,2.7262,2.7262,2.7262,2.7262,2.7262,2.7262,2.7262,2.7262,2.7262,2.7262,2.7262,2.7561,2.8136,2.8136,2.8442,2.6719,2.6992,2.7441,2.9101,3.0195,3.1074,3.1894,3.2715,3.3281,3.3281,3.332,3.3315,3.3187,3.3176,3.3404,3.4051,3.4167,3.4452,3.5308,3.4661,3.4452,3.5327,3.468,3.451,3.5404,3.55,3.55,3.55,3.55,3.55,3.55,3.55,3.55,3.55,3.55,3.55,3.55,3.55,3.55,3.55,3.55,3.55,3.55,3.55,3.55,3.55,3.55,3.55,3.55,3.55,3.55,3.55,3.55,3.55,3.5481,3.5442,3.5423,3.5423,3.5423,3.5423,3.5423,3.5423,3.5442,3.5462,3.5462,3.5481,3.5442,3.5144,3.4874,3.4576,3.4225,3.3938,3.3733,3.3733,3.3733,3.3513,3.2736,3.2571,3.2332,3.1556,3.139,3.139,3.1372,3.1354,3.1097,3.0283,3.0167,2.9873,2.9097,2.8999,2.8999,2.8999,2.8987,2.8968,2.8968,2.8944,2.8932,2.8932,2.8932,2.8932,2.8932,2.8932,2.8932,2.8932,2.8932,2.8932,2.8932,2.8932,2.8944,2.8968,2.8968,2.8987,2.6914,2.8262,2.9726,3.0312,3.1523,3.2637,3.293,3.3203,3.3398,3.3398,3.3823,3.3993,3.3311,3.4072,3.4669,3.426,3.468,3.5157,3.5462,3.4757,3.4318,3.4603,3.4375,3.4318,3.4603,3.5157,0.0,3.55,3.55,3.55,3.55,3.55,3.55,3.55,3.6019,3.6308,3.6308,3.6869,3.7157,3.7157,3.658,3.6019,3.55,3.55,3.55,3.55,3.55,3.55,3.55,3.55,3.55,3.55,3.55,3.55,3.55,3.55,3.55,3.55,3.55,3.55,3.55,3.55,3.55,3.55,3.55,3.55,3.5486,3.5383,3.5178,3.4908,3.4608,3.4294,3.4018,3.3842,3.3807,3.3733,3.3458,3.3396,3.333,3.3036,3.2981,3.2816,3.2284,3.2204,3.191,3.1115,3.0099,2.9317,2.9023,2.8999,2.8999,2.8999,2.8999,2.8999,2.8999,2.8999,2.8999,2.8999,2.8999,2.8999,2.8999,2.8999,2.8999,2.8999,2.8999,2.8999,2.8999,2.8999,2.8999,2.9005,2.9543,2.98,2.7754,2.9375,3.0976,3.1289,3.2617,3.3867,3.3867,3.4101,3.4238,3.3926,3.4268,3.4309,3.3366,3.4029,3.4604,3.4251,3.4661,3.5138,3.5462,3.4757,3.4318,3.4622,3.4661,3.4776,3.5064,3.5888,0.0,3.5942,3.5923,3.5923,3.5923,3.5923,3.5923,3.5923,3.6423,3.685,3.7157,3.7719,3.8007,3.7988,3.7427,3.6734,3.5923,3.5923,3.5769,3.55,3.55,3.55,3.55,3.55,3.55,3.55,3.55,3.55,3.55,3.55,3.55,3.55,3.55,3.55,3.55,3.55,3.55,3.55,3.55,3.55,3.55,3.55,3.5304,3.5066,3.4894,3.4614,3.4347,3.4166,3.4117,3.4087,3.3961,3.3935,3.3935,3.3935,3.3875,3.3663,3.3246,3.285,3.2417,3.1916,3.0705,2.9855,2.9855,2.9855,2.9855,2.9855,2.9855,2.9745,2.9445,2.969,2.9616,2.9042,2.9262,2.9299,2.9005,2.8999,2.9133,2.9427,2.9427,2.958,2.9855,2.958,2.958,2.9855,3.0099,3.0356,2.9141,3.0293,3.123,3.2051,3.3516,3.4766,3.4766,3.541,3.5742,3.4883,3.4641,3.4294,3.3309,3.3157,3.3366,3.4039,3.4202,3.4568,3.5385,3.4795,3.4564,3.5404,3.5538,3.5865,3.6638,3.7488,0.0,3.6888,0.0,3.6773,3.6773,3.6773,3.6773,3.6773,3.6811,3.7234,3.8065,3.8104,3.8104,3.8065,3.8065,3.7603,3.6773,3.6773,3.6346,3.5635,3.5635,3.5596,3.5558,3.5558,3.5538,3.55,3.55,3.55,3.55,3.55,3.55,3.55,3.55,3.55,3.55,3.55,3.55,3.55,3.55,3.55,3.55,3.55,3.5312,3.5117,3.5105,3.4917,3.4709,3.4694,3.4694,3.4603,3.4281,3.4242,3.4242,3.4242,3.4012,3.3928,3.4183,3.3377,3.2688,3.2688,3.2021,3.1488,3.1415,3.139,3.139,3.139,3.139,3.1097,3.0338,3.0968,3.0748,2.9225,2.9837,2.9928,2.9152,2.9115,2.9482,3.024,3.0265,3.0632,3.139,3.0632,3.065,3.1378,3.0668,3.0723,2.9473,3.1152,3.2812,3.3047,3.4394,3.5664,3.5664,3.584,3.5742,3.4883,3.4604,3.4065,3.2504,3.3163,3.3775,3.3304,3.4314,3.5253,3.5462,3.5308,3.5253,3.5462,3.6038,3.6462,3.6677,3.7488,0.0,0.0,3.8046,3.768,3.768,3.768,3.768,3.768,3.8296,3.8742,3.8973,3.955,3.955,3.8973,3.8973,3.8511,3.768,3.768,3.7565,3.7353,3.7353,3.6984,3.6385,3.6385,3.6038,3.55,3.55,3.55,3.55,3.55,3.55,3.55,3.55,3.55,3.55,3.55,3.55,3.55,3.55,3.55,3.55,3.55,3.5446,3.5358,3.5142,3.5057,3.4949,3.4739,3.4694,3.4674,3.4582,3.4566,3.4566,3.4566,3.4526,3.4481,3.4556,3.4137,3.3795,3.3795,3.3461,3.2767,3.1556,3.139,3.139,3.139,3.139,3.1323,3.1115,3.128,3.1225,3.0803,3.0987,3.1005,3.0803,3.0797,3.087,3.1097,3.1097,3.1207,3.139,3.1188,3.1207,3.1415,3.18,3.2094,3.0644,3.2324,3.3965,3.3965,3.498,3.5898,3.5527,3.543,3.5078,3.3785,3.343,3.2822,3.1033,3.2011,3.2929,3.2449,3.3814,3.5061,3.5442,3.55,3.55,3.55,3.6542,3.7273,3.7273,3.8373,3.93,0.0,3.905,3.8569,3.8569,3.8569,3.8569,3.8569,3.9031,3.9473,3.9823,4.0265,4.0265,3.9823,3.9823,3.9396,3.8569,3.8569,3.8354,3.8007,0.0,3.7719,3.7273,3.7273,3.7004,3.6561,3.6173,3.6038,3.5981,3.5635,3.55,3.55,3.55,3.55,3.55,3.55,3.55,3.55,3.55,3.55,3.55,3.55,3.55,3.5476,3.5308,3.5281,3.5231,3.5092,3.5057,3.5012,3.4908,3.4884,3.4832,3.4714,3.4807,3.4846,3.4714,3.4545,3.4418,3.4418,3.4171,3.3648,3.2754,3.2532,3.2455,3.2455,3.2455,3.2302,3.1953,3.2247,3.2143,3.1445,3.1733,3.1776,3.1409,3.139,3.1574,3.1916,3.1935,3.21,3.2455,3.21,3.21,3.2455,3.2552,3.2791,3.1992,3.3418,3.4707,3.4707,3.5273,3.5625,3.4863,3.4512,3.3904,3.2323,3.1765,3.1064,2.9497,3.0487,3.1561,3.1676,3.3106,3.451,3.5385,3.5596,3.5654,3.5654,3.7157,3.8161,3.8161,3.9588,4.0496,4.0496,3.9842,3.9454,3.9454,3.9454,3.9454,3.9454,3.9454,3.9785,4.0496,4.0496,4.0496,4.0496,4.0496,4.0131,3.9454,3.9454,3.905,3.8334,0.0,0.0,3.8161,3.8161,3.8046,3.7757,3.7004,3.6638,3.6465,3.575,3.55,3.55,3.55,3.55,3.55,3.55,3.55,3.55,3.55,3.55,3.55,3.55,3.55,3.55,3.55,3.55,3.55,3.55,3.5577,3.5573,3.5226,3.5147,3.5088,3.4841,3.499,3.5083,3.4856,3.4788,3.4744,3.4744,3.4491,3.4241,3.42,3.3967,3.3807,3.3807,3.3807,3.3532,3.2828,3.3396,3.3201,3.1813,3.2375,3.2449,3.1739,3.1721,3.2045,3.2754,3.2754,3.3103,3.3807,3.3103,3.3121,3.377,3.3084,3.3121,3.2168,3.3418,3.4707,3.4707,3.4805,3.4883,3.4726,3.359,3.2446,3.2085,3.0802,2.9635,2.9272,2.9986,3.0865,3.158,3.3106,3.451,3.5385,3.6077,3.6481,3.6481,3.8027,3.9069,3.9069,3.9938,0.0,0.0,0.0,4.0285,4.0285,4.0285,4.0285,4.0285,4.0285,4.0362,4.0496,4.0496,4.0496,4.0496,4.0496,4.0439,4.0285,4.0285,4.0208,4.0073,0.0,0.0,3.9069,3.9069,3.8238,3.6907,3.6754,3.6288,3.5692,3.5558,3.55,3.55,3.55,3.55,3.55,3.55,3.55,3.55,3.55,3.55,3.55,3.55,3.55,3.55,3.55,3.55,3.55,3.55,3.6,3.6301,3.5573,3.5432,3.5424,3.5369,3.5391,3.5421,3.5369,3.5182,3.5021,3.5021,3.4793,3.4518,3.4248,3.3967,3.3807,3.3807,3.3807,3.3733,3.3605,3.3715,3.3678,3.3403,3.3513,3.3532,3.3385,3.3385,3.344,3.3587,3.3587,3.366,3.3807,3.366,3.366,3.3807,3.366,3.3678,3.3379,3.4414,3.5371,3.5371,3.5039,3.457,3.4077,3.2644,3.1258,3.0668,2.9521,2.8467,2.793,2.8881,2.9852,3.0278,3.1778,3.3506,3.525,3.5827,3.6407,3.7273,3.8511,3.93,3.93,4.0035,4.0496,4.0496,0.0,4.0496,4.0496,4.0496,4.0496,4.0496,4.0496,4.0496,4.0496,4.0496,4.0496,4.0496,4.0496,4.0496,4.0496,4.0496,4.0496,4.0496,4.0496,0.0,3.9919,3.9919,3.9434,3.8584,3.7719,3.7138,3.6696,3.5827,3.55,3.55,3.55,3.55,3.55,3.55,3.55,3.55,3.55,3.55,3.55,3.55,3.55,3.55,3.55,3.55,3.55,3.55,3.6115,3.6484,3.5673,3.5827,3.6,3.5577,3.55,3.55,3.55,3.5387,3.5304,3.5304,3.5083,3.4851,3.4686,3.4423,3.4148,3.3829,3.3807,3.3807,3.3807,3.3807,3.3807,3.3807,3.3807,3.3807,3.3807,3.3807,3.3807,3.3807,3.3807,3.3807,3.3807,3.3807,3.3807,3.3807,3.3807,3.3807,3.4238,3.5195,3.5996,3.5996,3.5195,3.4179,3.327,3.1603,2.9999,2.9142,2.8158,2.7279,2.6703,2.7681,2.8681,2.905,3.0564,3.2599,3.5135,3.5808,3.66,3.8104,3.9031,3.955,3.955,4.0131,0.0,4.0496,0.0,0.0,4.0496,4.0496,4.0496,4.0496,4.0496,4.0496,4.0496,4.0538,4.0537,4.0537,4.0561,4.056,4.056,4.0556,4.0537,4.0537,4.0516,0.0,0.0,4.0496,4.04,4.0112,3.88,3.8161,3.7834,3.6523,3.5923,3.5788,3.5962,3.5904,3.5788,3.5962,3.5788,3.55,3.55,3.55,3.55,3.55,3.55,3.55,3.55,3.55,3.5596,3.5942,3.6388,3.6638,3.6369,3.6657,3.6792,3.6157,3.6038,3.5981,3.5788,3.575,3.5692,3.5538,3.5316,3.5155,3.5109,3.4921,3.4572,3.4055,3.3928,3.3883,3.3883,3.3829,3.3807,3.3807,3.3807,3.3807,3.3807,3.3807,3.3807,3.3807,3.3807,3.3807,3.3807,3.3807,3.3807,3.3807,3.3807,3.3807,3.3496,3.4726,3.5996,3.5996,3.4746,3.3301,3.248,3.0306,2.8384,2.8237,2.6825,2.5844,2.647,2.6736,2.7332,2.8857,3.0564,3.2599,3.5135,3.6811,3.8123,3.9069,3.99,4.04,4.04,4.0458,4.0496,0.0,0.0,0.0,4.0496,4.0496,4.0496,4.0496,4.0496,4.0496,4.0496,4.0623,4.0677,4.068,4.0735,4.0768,4.0766,4.0702,4.0677,4.067,4.0552,0.0,0.0,4.0496,4.0073,3.9396,3.9242,3.8703,3.7988,3.7834,3.7273,3.6696,3.7507,3.7254,3.6715,3.7507,3.6734,3.55,3.55,3.55,3.55,3.55,3.55,3.55,3.55,3.55,3.5885,3.7411,3.7215,3.7119,3.8627,3.8392,3.7853,3.7777,3.7777,3.7526,3.6734,3.66,3.6346,3.5615,3.5486,3.5372,3.5126,3.5083,3.4954,3.4648,3.434,3.4152,3.4152,3.3935,3.3807,3.3807,3.3807,3.3807,3.3807,3.3807,3.3807,3.3807,3.3807,3.3807,3.3807,3.3807,3.3807,3.3807,3.3807,3.3807,3.4687,3.5469,3.5996,3.5996,3.4687,3.3299,3.2881,3.0788,2.8889,2.8738,2.7734,2.6836,2.6647,2.6599,2.6986,2.8181,2.8951,3.0641,3.4218,3.5299,3.6607,3.9011,3.9569,3.9977,0.0,0.0,4.0496,0.0,0.0,0.0,4.0496,4.0496,4.0496,4.0496,4.0496,4.0496,4.0496,4.0639,4.0697,4.07,4.0764,4.0799,4.0797,4.077,4.0769,4.0764,4.0695,0.0,0.0,4.0654,4.0427,3.9988,3.9528,3.9118,3.8723,3.818,3.7777,3.7526,3.7873,3.7777,3.7546,3.7892,3.7546,3.7004,3.7004,3.7004,3.7004,3.7004,3.7004,3.6888,3.6369,3.6212,3.6388,3.7061,3.7757,3.8315,3.8473,3.8665,3.8627,3.8104,3.8007,3.7892,3.7542,3.7484,3.7369,3.7042,3.6561,3.6379,3.6788,3.6389,3.6224,3.6644,3.539,3.4508,3.4508,3.4231,3.4037,3.4037,3.3883,3.3807,3.3807,3.3807,3.3807,3.3807,3.3807,3.3807,3.3807,3.3807,3.3807,3.3807,3.3807,3.4057,3.4824,3.5605,3.5996,3.5996,3.4687,3.3319,3.2988,3.1118,2.9328,2.8887,2.8355,2.7754,2.7098,2.6986,2.7255,2.8124,2.8681,3.0336,3.4068,3.501,3.6395,3.93,3.9646,3.9881,0.0,4.0496,4.0496,0.0,0.0,0.0,0.0,4.0573,4.058,4.0563,4.0559,4.0568,4.0584,4.0721,4.0786,4.0786,4.0878,4.0918,4.0917,4.0874,4.0862,4.086,0.0,0.0,0.0,4.0786,4.0721,4.0539,4.0018,3.9773,3.9634,3.9017,3.8616,3.8411,3.8665,3.8584,3.8411,3.8665,3.8742,3.8742,3.8742,3.8392,3.8007,3.8007,3.8007,3.7853,3.7234,3.7081,3.7157,3.7407,3.8411,3.9204,3.8819,3.9223,3.9473,3.8857,3.8742,3.8661,3.843,3.8373,3.8296,3.8046,3.7484,3.7311,3.7911,3.7465,3.7311,3.793,3.66,3.5548,3.5201,3.4677,3.4351,3.4351,3.4074,3.3922,3.3922,3.3842,3.3807,3.3807,3.3807,3.3917,3.4149,3.4149,3.4284,3.4541,3.4541,3.4974,3.3203,3.4687,3.5996,3.5996,3.4687,3.3184,3.2383,3.0859,2.9312,2.8314,2.811,2.8042,2.7903,2.7893,2.8143,2.8953,3.0547,3.2561,3.5135,3.6907,3.8584,4.0285,4.0496,4.0496,4.0496,4.0496,0.0,0.0,0.0,0.0,0.0,4.0752,4.0761,4.07,4.0695,4.0729,4.0795,4.0924,4.0994,4.0995,4.1128,4.1191,4.1191,4.1054,4.0995,0.0,0.0,0.0,0.0,4.0797,4.0797,4.0795,4.0797,4.0745,4.0675,4.0675,4.0076,3.9396,4.0208,3.9958,3.9415,4.0227,4.0477,4.0477,4.0477,3.9319,3.8007,3.8007,3.8007,3.8007,3.7988,3.7988,3.82,3.9069,3.9281,3.9511,4.0304,4.0477,4.0477,4.0477,4.0477,4.0227,3.9415,3.9281,3.8992,3.8123,3.7988,3.7988,3.8007,3.7988,3.7988,3.8007,3.7984,3.7502,3.6389,3.5306,3.4689,3.4689,3.4379,3.4206,3.4206,3.3935,3.3807,3.3807,3.3807,3.4185,3.4979,3.4979,3.5426,3.6273,3.6273,3.6714,3.2344,3.2988,3.3262,3.2656,3.2109,3.1601,3.1241,3.0749,3.0249,2.9884,2.9779,2.954,2.8915,2.875,2.9182,3.0641,3.1333,3.2772,3.5885,3.7292,3.8411,3.955,4.0169,4.0496,0.0,0.0,0.0,0.0,0.0,0.0,0.0,4.0754,4.0783,4.0766,4.0764,4.0781,4.0797,4.0925,4.0996,4.0996,4.1148,4.1191,4.1191,4.115,0.0,0.0,0.0,0.0,0.0,4.1048,4.0962,4.0805,4.0907,4.0878,4.0764,4.0764,4.0585,4.0363,4.0568,4.0469,4.0275,4.0442,4.0496,4.0496,4.0496,4.0131,3.9704,3.9704,3.9319,3.8896,3.8896,3.8896,3.8954,3.9223,3.9727,4.0189,4.0439,4.0496,4.0496,4.0496,4.0496,4.0419,4.0169,4.0131,4.0035,3.9742,3.9242,3.9088,3.9646,3.9223,3.9107,3.9646,3.9223,3.8504,3.7536,3.6979,3.6421,3.5822,3.6072,3.5975,3.5394,3.5092,3.5212,3.5775,3.5019,3.5048,3.5899,3.5899,3.6028,3.631,3.6861,3.7254,3.1289,3.1953,3.2148,3.1894,3.1621,3.1367,3.1282,3.1005,3.0739,3.0625,3.0563,3.0362,2.975,2.9626,3.0044,3.1465,3.1948,3.3215,3.6273,3.7738,3.8941,4.0172,4.0468,0.0,0.0,0.0,0.0,0.0,0.0,0.0,0.0,4.0893,4.0955,4.0955,4.0908,4.0907,4.0955,4.1027,4.1078,4.1078,4.1151,4.1191,4.1191,4.1191,0.0,0.0,0.0,0.0,0.0,4.1171,4.1103,4.0958,4.103,4.0993,4.0872,4.0872,4.0831,4.0789,4.0752,4.0742,4.0729,4.0638,4.06,4.0584,4.0584,4.0534,4.0496,4.0496,4.015,3.9746,3.9746,3.9746,3.9746,3.9746,4.015,4.0496,4.0496,4.0496,4.0496,4.0496,4.0496,4.0496,4.0496,4.0496,4.0496,4.0496,4.0073,3.9938,4.0439,4.0054,3.9938,4.0458,4.0054,3.9531,3.8992,3.8207,3.7521,3.6977,3.72,3.7103,3.6562,3.6271,3.6377,3.6884,3.6066,3.606,3.6897,3.711,3.7202,3.7221,3.7724,3.7944,0.0,3.1211,3.2012,3.2754,3.2422,3.1934,3.1992,3.1445,0.0,3.0666,3.0611,3.0593,3.0604,3.0534,3.0846,3.1888,3.2679,3.4048,3.6544,3.8332,4.0076,0.0,4.1268,0.0,0.0,0.0,0.0,0.0,0.0,0.0,0.0,4.1128,4.1191,4.1191,4.1138,4.1136,4.1191,4.1191,4.1191,4.1191,4.1191,4.1191,4.1191,4.1191,0.0,0.0,0.0,0.0,0.0,4.1191,4.1191,4.1191,4.1191,4.1127,4.1001,4.1001,4.0946,4.0839,4.0813,4.0809,4.0809,4.0801,4.0764,4.0715,4.0715,4.0613,4.0496,4.0496,4.0496,4.0496,4.0496,4.0496,4.0496,4.0496,4.0496,4.0496,4.0496,4.0496,4.0496,4.0496,4.0496,4.0496,4.0496,4.0496,4.0496,4.0496,4.0496,4.0496,4.0496,4.0496,4.0496,4.0496,4.0496,4.0496,4.0496,3.9069,3.8142,3.8104,3.7916,3.7771,3.7714,3.7451,3.7356,3.7407,3.7083,3.7274,3.8014,3.8514,3.8754,3.8754,3.8742,3.8727,2.7578,0.0,2.8262,2.8457,2.8867,2.9394,0.0,3.0566,3.0898,3.0835,3.0712,3.0997,3.2309,3.1905,3.2292,3.5061,3.5677,3.6501,3.8493,3.9748,0.0,4.2714,4.1647,4.079,0.0,0.0,0.0,0.0,0.0,0.0,0.0,4.1128,4.1191,4.1191,4.1776,4.1796,4.1211,4.1191,4.1191,4.1191,4.1191,4.1191,4.1191,4.1191,0.0,0.0,0.0,0.0,4.1191,4.1191,4.1191,4.1191,4.1191,4.1171,4.115,4.115,4.1128,4.1082,4.0991,4.0956,4.0947,4.0824,4.0781,4.0779,4.0779,4.065,4.0496,4.0496,4.0496,4.0496,4.0496,4.0496,4.0496,4.0496,4.0496,4.0496,4.0496,4.0496,4.0496,4.0496,4.0496,4.0496,4.0496,4.0496,4.0496,4.0496,4.0496,4.0496,4.0496,4.0496,4.0496,4.0496,4.0496,4.0496,4.0496,4.015,3.9646,3.9031,3.9511,3.9545,3.8927,3.8638,3.8794,3.9417,3.9095,3.901,3.9192,3.932,3.9396,3.9389,3.9124,3.9013,2.6289,2.6992,2.7695,2.8086,2.8848,2.9629,3.0098,3.0566,3.0879,3.0816,3.0711,3.1042,3.232,3.2454,3.3218,3.5739,3.6538,3.7721,4.0242,0.0,4.1866,4.3144,4.2223,0.0,0.0,0.0,0.0,0.0,0.0,0.0,0.0,4.1502,4.1758,4.1758,4.2558,4.2598,4.1758,4.1758,4.1758,4.1758,4.1387,4.1191,4.1191,4.1191,4.1191,0.0,0.0,0.0,4.1191,4.1191,4.1191,4.1191,4.1191,4.1191,4.1191,4.1191,4.1191,4.1191,4.1126,4.1082,4.108,4.1017,4.093,4.0883,4.0883,4.0777,4.0629,4.061,4.0545,4.0496,4.0496,4.0496,4.0496,4.0496,4.0496,4.0496,4.0496,4.0496,4.0496,4.0496,4.0496,4.0496,4.0496,4.0496,4.0496,4.0496,4.0496,4.0496,4.0496,4.0496,4.0496,4.0496,4.0496,4.0496,4.0496,4.0496,4.0304,3.9881,4.0265,4.0304,3.9881,3.9705,3.9781,4.0081,3.9917,3.9759,3.9599,3.9599,3.9599,3.9599,3.9408,3.9327,2.6016,2.7266,2.8633,2.9258,3.0059,3.0742,3.0879,3.0898,3.0878,3.0747,3.0816,3.1177,3.2052,3.2987,3.4146,3.5847,3.7061,0.0,4.1978,4.2369,4.2652,4.352,4.2842,0.0,0.0,0.0,0.0,0.0,0.0,0.0,0.0,4.1953,4.2402,4.2402,4.3379,4.3535,4.2793,4.2656,4.2539,4.2383,4.1719,4.1328,4.1191,4.1191,4.1191,0.0,0.0,0.0,4.1191,4.1191,4.1191,4.1191,4.1191,4.1191,4.1191,4.1191,4.1191,4.1191,4.1191,4.1191,4.1191,4.1191,4.1127,4.1026,4.1026,4.0947,4.0822,4.0762,4.0642,4.0519,4.0519,4.0519,4.0496,4.0496,4.0496,4.0496,4.0496,4.0496,4.0496,4.0496,4.0496,4.0496,4.0496,4.0496,4.0496,4.0496,4.0496,4.0496,4.0496,4.0496,4.0496,4.0496,4.0496,4.0496,4.0496,4.0496,4.0496,4.0496,4.0496,4.0496,4.0496,4.0496,4.0389,4.0163,4.0158,4.0013,3.974,3.974,3.974,3.974,3.9828,3.9862,2.75,2.8633,2.9258,2.8652,2.9141,2.998,3.0723,3.0898,3.0898,3.0878,3.1377,3.229,3.3883,3.4848,3.6177,3.8589,4.0399,4.2143,0.0,0.0,4.3739,4.4498,0.0,0.0,0.0,0.0,0.0,0.0,0.0,0.0,0.0,4.1953,4.2402,4.2402,4.3965,4.4746,4.4609,4.3867,4.3125,4.2402,4.2266,4.1855,4.1191,4.1191,4.1191,0.0,0.0,4.1191,4.1191,4.1191,4.1191,4.1191,4.1191,4.1191,4.1191,4.1191,4.1191,4.1191,4.1191,4.1191,4.1191,4.1191,4.1191,4.1171,4.1171,4.1078,4.096,4.0951,4.0825,4.0661,4.0661,4.0595,4.0496,4.0496,4.0496,4.0496,4.0496,4.0496,4.0496,4.0496,4.0496,4.0496,4.0496,4.0496,4.0496,4.0496,4.0496,4.0496,4.0496,4.0496,4.0496,4.0496,4.0496,4.0496,4.0496,4.0496,4.0496,4.0496,4.0496,4.0496,4.0496,4.0496,4.0481,4.0445,4.0445,4.041,4.0357,4.0357,4.0357,4.0372,4.084,4.1042,2.668,2.7871,2.8906,2.8984,3.0332,3.1641,3.1601,3.1934,3.2246,3.2246,3.2518,3.3271,3.4984,3.6395,3.8295,4.1319,0.0,4.3412,4.4585,4.4554,4.4333,0.0,0.0,0.0,0.0,0.0,0.0,0.0,0.0,0.0,0.0,0.0,4.2617,4.3086,4.4336,4.5234,4.5703,4.4844,4.3965,4.3105,4.2637,4.1973,4.1191,4.1191,4.1191,4.1191,0.0,4.1191,4.1191,4.1191,4.1191,4.1191,4.1191,4.1191,4.1191,4.1191,4.1191,4.1191,4.1191,4.1191,4.1191,4.1191,4.1191,4.1191,4.1191,4.115,4.1105,4.1105,4.0935,4.0757,4.0757,4.0712,4.0642,4.063,4.0606,4.0579,4.0519,4.0496,4.0496,4.0496,4.0877,4.1046,4.0573,4.0896,4.1046,4.0573,4.0496,4.0496,4.0496,4.0496,4.0496,4.0496,4.0496,4.0496,4.0496,4.0496,4.0496,4.0496,4.0496,4.0496,4.0496,4.0496,4.0496,4.0496,4.0496,4.0496,4.0496,4.0973,4.12,4.1219,4.1946,4.2262,2.6191,2.7422,2.8809,2.9687,3.1367,3.2812,3.2793,3.3105,3.3516,3.3926,3.418,3.4706,3.5999,3.8023,4.041,4.3242,4.3997,4.445,4.5052,4.5249,0.0,0.0,0.0,0.0,0.0,0.0,0.0,0.0,0.0,0.0,0.0,0.0,4.2715,4.3379,4.4238,4.5019,4.5683,4.5039,4.4355,4.3691,4.2812,4.1973,4.1191,4.1191,4.1191,4.1191,4.1191,4.1191,4.1191,4.1191,4.1191,4.1191,4.1191,4.1191,4.1191,4.1191,4.1191,4.1191,4.1191,4.1191,4.1191,4.1191,4.1191,4.1191,4.1191,4.1191,4.1191,4.1191,4.1053,4.0899,4.0859,4.0816,4.0796,4.0739,4.0713,4.0693,4.0565,4.0545,4.0607,4.077,4.1335,4.1658,4.1185,4.1662,4.1873,4.1204,4.1108,4.1031,4.0839,4.0973,4.0954,4.0535,4.0685,4.0723,4.0516,4.0685,4.08,4.08,4.0612,4.0496,4.0496,4.0496,4.0593,4.08,4.08,4.0896,4.1108,4.1777,4.21,4.2139,4.2989,4.3374,2.7676,2.8789,2.9726,3.0586,3.0937,3.168,3.3984,3.3945,3.3867,3.5488,3.6465,3.7051,3.7187,3.9902,4.2461,4.3535,4.5058,4.6133,4.6172,0.0,0.0,0.0,0.0,0.0,0.0,0.0,0.0,0.0,0.0,0.0,0.0,0.0,0.0,4.248,4.334,4.3828,4.3887,4.3828,4.3769,4.3691,4.2812,4.1973,4.1191,4.1191,4.1191,4.1191,4.1191,4.1191,4.1191,4.1191,4.1191,4.1191,4.1191,4.1191,4.1191,4.1191,4.1191,4.1191,4.1191,4.1191,4.1191,4.1191,4.1191,4.1191,4.1191,4.1191,4.1191,4.1191,4.1191,4.1149,4.1022,4.0883,4.0797,4.0789,4.0787,4.0775,4.0696,4.0683,4.0887,4.1578,4.1754,4.2043,4.2777,4.2951,4.2989,4.2912,4.2912,4.2624,4.1812,4.2412,4.2297,4.0669,4.1219,4.1373,4.0573,4.1239,4.1716,4.1716,4.0954,4.0496,4.0496,4.0496,4.0877,4.1696,4.1716,4.21,4.2912,4.2989,4.3008,4.3028,4.3835,4.4201,2.6504,2.8105,2.9687,3.0019,3.1289,3.2851,3.4355,3.5273,3.6172,3.7363,3.7871,3.8437,3.9531,4.1621,4.3496,4.4375,4.5527,4.6308,0.0,0.0,0.0,0.0,0.0,0.0,0.0,0.0,0.0,0.0,0.0,0.0,0.0,0.0,0.0,4.2383,4.3242,4.3691,4.3691,4.3691,4.3437,4.2891,4.2558,4.1973,4.1191,4.1191,4.1191,4.1191,4.1191,4.1191,4.1191,4.1191,4.1191,4.1191,4.1191,4.1191,4.1191,4.1191,4.1191,4.1191,4.1191,4.1191,4.1191,4.1191,4.1191,4.1191,4.1191,4.1191,4.1191,4.1191,4.1191,4.1191,4.1148,4.1081,4.1026,4.0931,4.0921,4.0899,4.0799,4.1184,4.1633,4.1873,4.2774,4.3399,4.3148,4.3508,4.3682,4.3181,4.3104,4.2989,4.2643,4.2893,4.2854,4.2185,4.2412,4.247,4.2147,4.2412,4.2604,4.2604,4.2297,4.2128,4.2128,4.2128,4.2277,4.2604,4.2604,4.2777,4.3104,4.3605,4.3855,4.3874,4.4705,4.5109,2.6113,2.7812,2.9668,2.9941,3.1934,3.4101,3.5254,3.6445,3.7695,3.9121,3.9414,3.9941,4.168,4.293,4.3984,0.0,4.5723,0.0,0.0,0.0,0.0,0.0,0.0,0.0,0.0,0.0,0.0,0.0,0.0,0.0,0.0,0.0,0.0,0.0,4.2851,4.3281,4.3281,4.3281,4.2988,4.2402,4.2148,4.1738,4.1191,4.1191,4.1191,4.1191,4.1191,4.1191,4.1191,4.1191,4.1191,4.1191,4.1191,4.1191,4.1191,4.1191,4.1191,4.1191,4.1191,4.1191,4.1191,4.1191,4.1191,4.1191,4.1191,4.1191,4.1191,4.1191,4.1191,4.1191,4.1191,4.1191,4.1171,4.1081,4.1056,4.1025,4.0883,4.1549,4.2223,4.2409,4.3567,4.4373,4.4025,4.4366,4.4513,4.3974,4.3897,4.3797,4.3508,4.372,4.3778,4.3508,4.3258,4.3104,4.3104,4.3335,4.347,4.347,4.3739,4.3643,4.3124,4.3104,4.322,4.347,4.347,4.3605,4.3897,4.4436,4.4705,4.4724,4.5321,4.5594,2.6992,2.8262,2.9805,3.0684,3.2832,3.5176,3.6914,3.7324,3.8066,4.0664,4.1211,4.1719,4.3379,4.3691,0.0,4.4863,0.0,0.0,0.0,0.0,0.0,0.0,0.0,0.0,0.0,0.0,0.0,0.0,0.0,0.0,0.0,0.0,0.0,0.0,4.1992,4.2402,4.2402,4.2422,4.2422,4.2402,4.1601,4.1211,4.1191,4.1191,4.1191,4.1191,4.1191,4.1191,4.1191,4.1191,4.1191,4.1191,4.1191,4.1191,4.1191,4.1191,4.1191,4.1191,4.1191,4.1191,4.1191,4.1191,4.1191,4.1191,4.1191,4.1191,4.1191,4.1191,4.1191,4.1191,4.1191,4.1191,4.1191,4.1191,4.1191,4.117,4.1046,4.17,4.2522,4.3275,4.4009,4.4799,4.5644,4.5681,4.5594,4.5594,4.5594,4.5282,4.4417,4.5071,4.5263,4.4397,4.3605,4.3124,4.3124,4.3855,4.4316,4.4316,4.5128,4.4859,4.3181,4.3124,4.3508,4.4297,4.4316,4.4744,4.5594,4.5594,4.5594,4.5594,4.5594,4.5594,2.6992,2.8262,2.9961,3.1445,3.373,3.6074,3.7812,3.8691,3.9512,4.0918,4.1641,4.2207,4.2695,4.3789,0.0,4.4961,0.0,0.0,0.0,0.0,0.0,0.0,0.0,0.0,0.0,0.0,0.0,0.0,0.0,0.0,0.0,0.0,0.0,0.0,4.2578,4.3027,4.2402,4.3613,4.3926,4.3301,4.3066,4.2344,4.1191,4.1191,4.1191,4.1191,4.1191,4.1191,4.1191,4.1191,4.1191,4.1191,4.1191,4.1191,4.1191,4.1191,4.1191,4.1191,4.1191,4.1191,4.1191,4.1191,4.1191,4.1191,4.1191,4.1191,4.1191,4.1191,4.1191,4.1191,4.1191,4.1191,4.1191,4.1191,4.1191,4.1347,4.1872,4.2672,4.3506,4.4239,4.4972,4.5545,4.5764,4.5681,4.5594,4.5594,4.5594,4.5518,4.5244,4.5436,4.5494,4.5244,4.4994,4.4859,4.4859,4.5071,4.5205,4.5205,4.5455,4.5379,4.4878,4.4859,4.4975,4.5205,4.5205,4.534,4.5594,4.5594,4.5594,4.5594,4.5594,4.5594,2.8359,2.957,3.1133,3.3184,3.5117,3.7051,3.916,4.0039,4.0664,4.1504,4.1816,4.2226,4.3242,4.4004,0.0,0.0,0.0,0.0,0.0,0.0,0.0,0.0,0.0,0.0,0.0,0.0,0.0,0.0,0.0,0.0,0.0,0.0,0.0,0.0,4.2832,4.3457,4.293,4.4297,4.4746,4.4219,4.3867,4.3164,4.2187,4.1836,4.1504,4.1191,4.1191,4.1191,4.1191,4.1191,4.1191,4.1191,4.1191,4.1191,4.1191,4.1191,4.1191,4.1191,4.1191,4.1191,4.1191,4.1191,4.1191,4.1191,4.1191,4.1191,4.1191,4.1191,4.1191,4.1191,4.1191,4.1445,4.1601,4.1289,4.1445,4.1816,4.2305,4.3359,4.4355,4.4792,4.547,4.595,4.5864,4.5756,4.5657,4.5607,4.5594,4.5594,4.5594,4.5594,4.5594,4.5594,4.5594,4.5594,4.5594,4.5594,4.5594,4.5594,4.5594,4.5594,4.5594,4.5594,4.5594,4.5594,4.5594,4.5594,4.5594,4.5594,4.5594,4.5594,4.5594,4.5594,3.0332,3.1484,3.2832,3.5469,3.6894,3.8281,4.0664,4.1191,4.1406,4.2148,4.1777,4.2012,4.4336,4.418,4.4219,0.0,0.0,0.0,0.0,0.0,0.0,0.0,0.0,0.0,0.0,0.0,0.0,0.0,0.0,0.0,0.0,0.0,0.0,4.1191,4.2754,4.3574,4.3574,4.4453,4.4922,0.0,4.4199,4.3828,4.3789,4.2832,4.1953,4.1191,4.1191,4.1191,4.1191,4.1191,4.1191,4.1191,4.1191,4.1191,4.1191,4.1191,4.1191,4.1191,4.1191,4.1191,4.1191,4.1191,4.1191,4.1211,4.1289,4.1308,4.1308,4.1308,4.1308,4.1308,4.1308,4.1855,4.2246,4.1582,4.1992,4.2539,4.2617,4.3887,4.5019,4.5098,4.5651,4.6051,4.5932,4.5859,4.5758,4.5629,4.5594,4.5594,4.5594,4.5594,4.5594,4.5594,4.5594,4.5594,4.5594,4.5594,4.5594,4.5594,4.5594,4.5594,4.5594,4.5594,4.5594,4.5594,4.5594,4.5594,4.5594,4.5594,4.5594,4.5594,4.5594,4.5594,2.959,3.1016,3.2988,3.6211,3.8691,4.0508,4.1074,4.1191,4.125,4.1426,4.1816,4.2305,4.2851,4.3379,0.0,0.0,0.0,0.0,0.0,0.0,0.0,0.0,0.0,0.0,0.0,0.0,0.0,0.0,0.0,0.0,0.0,0.0,0.0,4.1191,4.2168,4.2676,4.2676,4.3535,4.4316,0.0,4.4805,4.4726,4.4668,4.3105,4.1953,4.1191,4.1191,4.1191,4.1191,4.1191,4.1191,4.1191,4.1191,4.1191,4.1191,4.1191,4.1191,4.1191,4.1191,4.1191,4.1191,4.1191,4.1191,4.1328,4.1953,4.2148,4.2148,4.2148,4.2148,4.2148,4.2148,4.2266,4.2539,4.3047,4.3281,4.3613,4.4297,4.4746,4.5195,4.5898,4.6061,4.6085,4.6051,4.5901,4.5758,4.5629,4.5594,4.5594,4.5594,4.5594,4.5594,4.5594,4.5594,4.5594,4.5594,4.5594,4.5594,4.5594,4.5594,4.5594,4.5594,4.5594,4.5594,4.5594,4.5594,4.5594,4.5594,4.5594,4.5594,4.5594,4.5594,4.5594,3.0371,3.1797,3.3594,3.7051,3.957,4.1191,4.1191,4.1191,4.1191,4.1191,4.1523,4.1933,4.2324,4.2773,0.0,0.0,0.0,0.0,0.0,0.0,0.0,0.0,0.0,0.0,0.0,0.0,0.0,0.0,0.0,0.0,0.0,4.1191,4.1191,4.1191,4.1973,4.2402,4.2402,4.3262,4.3926,4.4375,4.4375,4.4375,4.4355,4.3437,4.2578,4.1777,4.1777,4.1562,4.1191,4.1191,4.1191,4.1191,4.1191,4.1445,4.1738,4.1348,4.1719,4.2344,4.1914,4.2051,4.2402,4.2402,4.2402,4.248,4.2891,4.3027,4.3027,4.3027,4.3027,4.3027,4.3027,4.332,4.3769,4.4219,4.4316,4.4453,4.4902,4.5332,4.5762,4.6211,4.6247,4.6175,4.6114,4.5939,4.5789,4.5708,4.5643,4.5594,4.5594,4.5594,4.5594,4.5594,4.5594,4.5594,4.5594,4.5594,4.5594,4.5594,4.5594,4.5594,4.5594,4.5594,4.5594,4.5594,4.5594,4.5594,4.5594,4.5594,4.5594,4.5594,4.5594,4.5594,3.0898,3.2656,3.4648,3.7988,4.0019,4.1191,4.1191,4.1191,4.1191,4.1191,4.1191,4.1406,4.207,0.0,0.0,0.0,0.0,0.0,0.0,0.0,0.0,0.0,0.0,0.0,0.0,0.0,0.0,0.0,0.0,0.0,4.1191,4.1191,4.1191,4.1191,4.1855,4.2187,4.2187,4.291,4.334,4.3476,4.3633,4.3691,4.3691,4.3691,4.3223,4.2383,4.2246,4.1816,4.1191,4.1191,4.1289,4.1387,4.125,4.1777,4.2519,4.1543,4.2266,4.3574,4.2695,4.2969,4.3691,4.3691,4.3691,4.373,4.3887,4.3926,4.3926,4.3926,4.3926,4.3926,4.3926,4.4453,4.5039,4.5195,4.5215,4.5215,4.5215,4.5781,4.6308,4.6308,4.6308,4.6267,4.6119,4.5953,4.5846,4.5809,4.5708,4.5637,4.5599,4.5594,4.5594,4.5594,4.5594,4.5594,4.5594,4.5629,4.5631,4.5631,4.5631,4.5631,4.5631,4.5612,4.5594,4.5594,4.5594,4.5594,4.5594,4.5594,4.5594,4.5594,4.5594,4.5594,2.8516,3.2168,3.6309,3.9043,4.0469,4.1191,4.1191,4.1191,4.1191,4.1191,4.1191,4.123,0.0,0.0,0.0,0.0,0.0,0.0,0.0,0.0,0.0,0.0,0.0,0.0,0.0,0.0,0.0,0.0,0.0,0.0,4.1191,4.1191,4.1191,4.1191,4.1308,4.1367,4.1367,4.1484,4.1875,4.2578,4.334,4.3691,4.3691,4.3691,4.3223,4.2363,4.166,4.1308,4.1191,4.1191,4.1601,4.2168,4.1465,4.2148,4.334,4.1777,4.2266,4.3574,4.2695,4.2969,4.3691,4.3691,4.3691,4.3848,4.4609,4.4824,4.4824,4.4824,4.4824,4.4824,4.4824,4.4902,4.5195,4.5957,4.6133,4.6133,4.6133,4.6211,4.6308,4.6308,4.6308,4.6267,4.6119,4.6076,4.5994,4.5825,4.578,4.5725,4.5616,4.5594,4.5594,4.5594,4.5594,4.5594,4.5594,4.5708,4.5766,4.5766,4.5766,4.5766,4.5766,4.5657,4.5594,4.5594,4.5594,4.5594,4.5594,4.5594,4.5594,4.5594,4.5594,4.5594,2.9844,3.3184,3.6504,3.8633,3.9824,4.0605,4.1094,4.1191,4.1191,4.1191,4.1191,0.0,0.0,0.0,0.0,0.0,0.0,0.0,0.0,0.0,0.0,0.0,0.0,0.0,0.0,0.0,0.0,0.0,0.0,4.1191,4.1191,4.1191,4.1191,4.1191,4.1191,4.1191,4.1191,4.1191,4.1387,4.1738,4.2129,4.2539,4.2969,4.25,4.2344,4.2383,4.2031,4.1621,4.1191,4.1191,4.1406,4.1699,4.1348,4.2226,4.3555,4.2324,4.3262,4.5039,4.416,4.4433,4.5156,4.5156,4.5156,4.5234,4.5605,4.5723,4.5723,4.5723,4.5723,4.5723,4.5723,4.5723,4.582,4.6211,4.6308,4.6308,4.6308,4.6308,4.6308,4.6308,4.6308,4.6289,4.6224,4.6147,4.6036,4.5884,4.582,4.5773,4.5726,4.5715,4.5715,4.5715,4.5715,4.5715,4.5715,4.5775,4.5821,4.585,4.5855,4.5836,4.5803,4.5743,4.568,4.5594,4.5594,4.5594,4.5594,4.5594,4.5594,4.5594,4.5594,4.5594,3.0644,3.3242,3.5566,3.7734,3.9082,4.0137,4.0996,4.1191,4.1191,0.0,4.1191,0.0,0.0,0.0,0.0,0.0,0.0,0.0,0.0,0.0,0.0,0.0,0.0,0.0,0.0,0.0,0.0,0.0,0.0,4.1191,4.1191,4.1191,4.1191,4.1191,4.1191,4.1191,4.1191,4.1191,4.1191,4.1191,4.1191,4.1504,4.207,4.1465,4.1523,4.2109,4.2109,4.1758,4.1191,4.1191,4.1328,4.1484,4.1289,4.2363,4.3906,4.2793,4.4043,4.6172,4.5293,4.5566,4.6308,4.6308,4.6308,4.6308,4.6308,4.6308,4.6308,4.6308,4.6308,4.6308,4.6308,4.6308,4.6308,4.6308,4.6308,4.6308,4.6308,4.6308,4.6308,4.6308,4.6308,4.6308,4.6308,4.6223,4.6112,4.5976,4.5908,4.587,4.5829,4.5823,4.5823,4.5823,4.5823,4.5823,4.5823,4.5861,4.5908,4.5955,4.5942,4.5925,4.5886,4.5828,4.5759,4.5681,4.5631,4.5594,4.5594,4.5594,4.5594,4.5594,4.5594,4.5594,2.9004,3.1035,3.3203,3.6543,3.8633,4.0137,4.0996,4.1191,4.1191,4.1191,4.1191,0.0,0.0,0.0,0.0,0.0,0.0,0.0,0.0,0.0,0.0,0.0,0.0,0.0,0.0,0.0,0.0,0.0,0.0,4.1191,4.1191,4.1191,4.1191,4.1191,4.1191,4.1191,4.1191,4.1191,4.1191,4.1191,4.1191,4.1211,4.1269,4.1211,4.1211,4.1269,4.1269,4.123,4.1191,4.1191,4.1641,4.2266,4.1504,4.2734,4.4726,4.3027,4.4043,4.6172,4.5293,4.5566,4.6308,4.6308,4.6308,4.6308,4.6308,4.6308,4.6308,4.6308,4.6308,4.6308,4.6308,4.6308,4.6308,4.6308,4.6308,4.6308,4.6308,4.6308,4.6308,4.6308,4.6308,4.6308,4.6308,4.6289,4.6247,4.6113,4.6082,4.6036,4.5905,4.589,4.589,4.589,4.589,4.589,4.589,4.6019,4.6081,4.6084,4.6084,4.6083,4.608,4.5898,4.5832,4.5879,4.5702,4.5594,4.5594,4.5594,4.5594,4.5594,4.5594,4.5594,2.8359,3.0039,3.1914,3.4219,3.6523,3.8457,3.9336,4.0391,4.1191,4.1191,0.0,0.0,0.0,0.0,0.0,0.0,0.0,0.0,0.0,0.0,0.0,0.0,0.0,0.0,0.0,0.0,0.0,0.0,0.0,0.0,4.1191,4.1191,4.1191,4.1191,4.1191,4.1191,4.1191,4.1191,4.1191,4.1191,4.1191,4.1191,4.1191,4.1191,4.1191,4.1191,4.1191,4.1191,4.1191,4.1191,4.1367,4.1601,4.1308,4.2422,4.4082,4.3457,4.4531,4.6269,4.5937,4.6035,4.6308,4.6308,4.6308,4.6308,4.6308,4.6308,4.6308,4.6308,4.6308,4.6308,4.6308,4.6308,4.6308,4.6308,4.6308,4.6308,4.6308,4.6308,4.6308,4.6308,4.6308,4.6308,4.6308,4.6308,4.6248,4.6118,4.6109,4.6082,4.6036,4.6033,4.6033,4.6033,4.6033,4.6033,4.6033,4.6076,4.6143,4.6224,4.6225,4.6198,4.6091,4.6021,4.5952,4.5901,4.5786,4.5722,4.5741,4.5643,4.5594,4.5594,4.5594,4.5594,2.7637,2.8926,3.0644,3.3203,3.4922,3.6523,3.8574,3.9707,4.041,4.0703,0.0,0.0,0.0,0.0,0.0,0.0,0.0,0.0,0.0,0.0,0.0,0.0,0.0,0.0,0.0,0.0,0.0,0.0,0.0,0.0,4.1191,4.1191,4.1191,4.1191,4.1191,4.1191,4.1191,4.1191,4.1191,4.1191,4.1191,4.1191,4.1191,4.1191,4.1191,4.1191,4.1191,4.1191,4.1191,4.1191,4.1191,4.1191,4.1191,4.2226,4.3691,4.3691,4.4805,4.6308,4.6308,4.6308,4.6308,4.6308,4.6308,4.6308,4.6308,4.6308,4.6308,4.6308,4.6308,4.6308,4.6308,4.6308,4.6308,4.6308,4.6308,4.6308,4.6308,4.6308,4.6308,4.6308,4.6308,4.6308,4.6308,4.6308,4.6268,4.6176,4.6172,4.6172,4.6172,4.6172,4.6172,4.6172,4.6172,4.6172,4.6172,4.6172,4.6201,4.6289,4.6308,4.6268,4.6173,4.6119,4.608,4.6038,4.5901,4.5825,4.5825,4.5677,4.5594,4.5594,4.5594,4.5594,0.0,0.0,0.0,3.3476,3.3945,3.4512,3.873,0.0,3.8789,3.9687,0.0,0.0,0.0,0.0,0.0,0.0,0.0,0.0,0.0,0.0,0.0,0.0,0.0,0.0,0.0,0.0,0.0,0.0,0.0,4.1191,4.1191,4.1191,4.1191,4.1191,4.1191,4.1191,4.1191,4.1191,4.1191,4.1191,4.1191,4.1191,4.1191,4.1191,4.1191,4.1191,4.1191,4.1191,4.1191,4.1191,4.1191,4.1191,4.1191,4.2207,4.3652,4.3691,4.4785,4.6269,4.6289,4.6308,4.6308,4.6308,4.6308,4.6308,4.6308,4.6308,4.6308,4.6308,4.6308,4.6308,4.6308,4.6308,4.6308,4.6308,4.6308,4.6308,4.6308,4.6308,4.6308,4.6308,4.6308,4.6308,4.6308,4.6308,4.6308,4.6308,4.6308,4.6308,4.6308,4.6308,4.6308,4.6308,4.6308,4.6308,4.6308,4.6308,4.6308,4.6308,4.6308,4.6308,4.6308,4.6174,4.6172,4.6308,4.604,4.5905,4.5905,4.5694,4.5599,4.5594,4.5594,4.5594,2.5996,0.0,0.0,0.0,0.0,0.0,0.0,0.0,3.7148,3.8652,0.0,0.0,0.0,0.0,0.0,0.0,0.0,0.0,0.0,0.0,0.0,0.0,0.0,0.0,0.0,0.0,0.0,0.0,4.1191,4.1191,4.1191,4.1191,4.1191,4.1191,4.1191,4.1191,4.1191,4.1191,4.1191,4.1191,4.1191,4.1191,4.1191,4.1191,4.1191,4.1191,4.1191,4.1191,4.1191,4.1191,4.1191,4.1191,4.1191,4.1836,4.2832,4.3476,4.4394,4.5449,4.6074,4.6308,4.6308,4.6308,4.6308,4.6308,4.6308,4.6308,4.6308,4.6308,4.6308,4.6308,4.6308,4.6308,4.6308,4.6308,4.6308,4.6308,4.6308,4.6308,4.6308,4.6308,4.6308,4.6308,4.6308,4.6308,4.6308,4.6308,4.6308,4.6308,4.6308,4.6308,4.6308,4.6308,4.6308,4.6308,4.6308,4.6308,4.6308,4.6308,4.6308,4.6308,4.6308,4.6268,4.6268,4.6308,4.6121,4.6042,4.6042,4.5833,4.5688,4.5594,4.5594,4.5594,2.623,2.6973,2.8105,2.9551,0.0,0.0,3.4082,3.498,0.0,0.0,0.0,0.0,0.0,0.0,0.0,0.0,0.0,0.0,0.0,0.0,0.0,0.0,0.0,0.0,0.0,0.0,0.0,4.1191,4.1191,4.1191,4.1191,4.1191,4.1191,4.1191,4.1191,4.1191,4.1191,4.1191,4.1191,4.1191,4.1191,4.1191,4.1191,4.1191,4.1191,4.1191,4.1191,4.1191,4.1191,4.1191,4.1191,4.1191,4.1191,4.1914,4.3008,4.3516,4.4473,4.5605,4.6113,4.6308,4.6308,4.6308,4.6308,4.6308,4.6308,4.6308,4.6308,4.6308,4.6308,4.6308,4.6308,4.6308,4.6308,4.6308,4.6308,4.6308,4.6308,4.6308,4.6308,4.6308,4.6308,4.6308,4.6308,4.6308,4.6308,4.6308,4.6308,4.6308,4.6308,4.6308,4.6308,4.6308,4.6308,4.6308,4.6308,4.6308,4.6308,4.6308,4.6308,4.6308,4.6308,4.6308,4.6308,4.6308,4.6224,4.6169,4.6108,4.5929,4.5799,4.5688,4.5637,4.5594,2.7168,2.7285,2.8144,3.1152,0.0,0.0,3.4609,3.4902,3.4883,0.0,0.0,0.0,0.0,0.0,0.0,0.0,0.0,0.0,0.0,0.0,0.0,0.0,0.0,0.0,0.0,4.1191,4.1191,4.1191,4.1191,4.1191,4.1191,4.1191,4.1191,4.1191,4.1191,4.1191,4.1191,4.1191,4.1191,4.1191,4.1191,4.1191,4.1191,4.1191,4.1191,4.1191,4.1191,4.1191,4.1191,4.1191,4.1191,4.1211,4.1308,4.2246,4.3574,4.3769,4.4824,4.6172,4.6269,4.6308,4.6308,4.6308,4.6308,4.6308,4.6308,4.6308,4.6308,4.6308,4.6308,4.6308,4.6308,4.6308,4.6308,4.6308,4.6308,4.6308,4.6308,4.6308,4.6308,4.6308,4.6308,4.6308,4.6308,4.6308,4.6308,4.6308,4.6308,4.6308,4.6308,4.6308,4.6308,4.6308,4.6308,4.6308,4.6308,4.6308,4.6308,4.6308,4.6308,4.6308,4.6308,4.6308,4.6308,4.6308,4.6308,4.6246,4.6118,4.5967,4.5858,4.5796,4.5657,4.5594,2.8242,2.9062,3.0137,0.0,0.0,0.0,3.2012,3.2305,3.2969,0.0,0.0,0.0,0.0,0.0,0.0,0.0,0.0,0.0,0.0,0.0,0.0,0.0,0.0,0.0,0.0,4.1191,4.1191,4.1191,4.1191,4.1191,4.1191,4.1191,4.1191,4.1191,4.1191,4.1191,4.1191,4.1191,4.1191,4.1191,4.1191,4.1191,4.1191,4.1191,4.1191,4.1191,4.1191,4.1191,4.1191,4.1191,4.1191,4.1269,4.1914,4.2363,4.2812,4.4238,4.4961,4.5351,4.6055,4.6308,4.6308,4.6308,4.6308,4.6308,4.6308,4.6308,4.6308,4.6308,4.6308,4.6308,4.6308,4.6308,4.6308,4.6308,4.6308,4.6308,4.6308,4.6308,4.6308,4.6308,4.6308,4.6308,4.6308,4.6308,4.6308,4.6308,4.6308,4.6308,4.6308,4.6308,4.6308,4.6308,4.6308,4.6308,4.6308,4.6308,4.6308,4.6308,4.6308,4.6308,4.6308,4.6308,4.6308,4.6308,4.6308,4.6289,4.6268,4.5968,4.5812,4.5796,4.5657,4.5594,2.9199,0.0,0.0,3.0781,0.0,0.0,0.0,3.2168,3.2559,3.3789,3.3379,0.0,0.0,0.0,0.0,0.0,0.0,0.0,0.0,0.0,0.0,0.0,0.0,0.0,0.0,4.1191,4.1191,4.1191,4.1191,4.1191,4.1191,4.1191,4.1191,4.1191,4.1191,4.1191,4.1191,4.1191,4.1191,4.1191,4.1191,4.1191,4.1191,4.1191,4.1191,4.1191,4.1191,4.1191,4.1191,4.1191,4.1445,4.1797,4.1797,4.2305,4.3144,4.4023,4.4902,4.5703,4.6152,4.6308,4.6308,4.6308,4.6308,4.6308,4.6308,4.6308,4.6308,4.6308,4.6308,4.6308,4.6308,4.6308,4.6308,4.6308,4.6308,4.6308,4.6308,4.6308,4.6308,4.6308,4.6308,4.6308,4.6308,4.6308,4.6308,4.6308,4.6308,4.6308,4.6308,4.6308,4.6308,4.6308,4.6308,4.6308,4.6308,4.6308,4.6308,4.6308,4.6308,4.6308,4.6308,4.6308,4.6308,4.6308,4.6308,4.6308,4.6308,4.6054,4.5927,4.5856,4.5749,4.5661,0.0,0.0,0.0,0.0,0.0,3.1855,0.0,0.0,0.0,3.3711,0.0,0.0,0.0,0.0,0.0,0.0,0.0,0.0,0.0,0.0,0.0,0.0,0.0,0.0,0.0,4.0801,4.084,4.1172,4.0898,4.0859,4.1172,4.1191,4.1191,4.1191,4.1191,4.1191,4.1191,4.1191,4.1191,4.1191,4.1191,4.1191,4.1191,4.1191,4.1191,4.1191,4.1191,4.1191,4.1191,4.1191,4.168,4.2344,4.1875,4.2617,4.3965,4.4141,4.5098,4.6308,4.6308,4.6308,4.6308,4.6308,4.6308,4.6308,4.6308,4.6308,4.6308,4.6308,4.6308,4.6308,4.6308,4.6308,4.6308,4.6308,4.6308,4.6308,4.6308,4.6308,4.6308,4.6308,4.6308,4.6308,4.6308,4.6308,4.6308,4.6308,4.6308,4.6308,4.6308,4.6308,4.6308,4.6308,4.6308,4.6308,4.6308,4.6308,4.6308,4.6308,4.6308,4.6308,4.6308,4.6308,4.6308,4.6308,4.6308,4.6308,4.6308,4.6198,4.6068,4.5897,4.5838,4.5741,0.0,0.0,0.0,0.0,3.3242,0.0,0.0,0.0,3.2031,3.1445,0.0,0.0,0.0,0.0,0.0,0.0,0.0,0.0,0.0,0.0,0.0,0.0,0.0,0.0,0.0,0.0,3.9531,4.1074,3.9766,3.957,4.1113,4.1191,4.1191,4.1191,4.1191,4.1191,4.1191,4.1191,4.1191,4.1191,4.1191,4.1191,4.1191,4.1191,4.1191,4.1191,4.1191,4.1191,4.1191,4.1191,4.168,4.2461,4.3144,4.4004,4.4941,4.5723,4.6133,4.6308,4.6308,4.6308,4.6308,4.6308,4.6308,4.6308,4.6308,4.6308,4.6308,4.6308,4.6308,4.6308,4.6308,4.6308,4.6308,4.6308,4.6308,4.6308,4.6308,4.6308,4.6308,4.6308,4.6308,4.6308,4.6308,4.6308,4.6308,4.6308,4.6308,4.6308,4.6308,4.6308,4.6308,4.6308,4.6308,4.6308,4.6308,4.6308,4.6308,4.6308,4.6308,4.6308,4.6308,4.6308,4.6308,4.6308,4.6308,4.6308,4.6308,4.6289,4.6146,4.5897,4.5838,4.5741,0.0,0.0,0.0,0.0,0.0,0.0,3.1894,0.0,3.1484,0.0,0.0,0.0,0.0,0.0,0.0,0.0,0.0,0.0,0.0,0.0,0.0,0.0,0.0,0.0,0.0,0.0,0.0,0.0,0.0,3.9141,4.0371,4.0937,4.1191,4.1191,4.1191,4.1191,4.1191,4.1191,4.1191,4.1191,4.1191,4.1191,4.1191,4.1191,4.1191,4.1191,4.1191,4.1191,4.123,4.1699,4.2383,4.3183,4.3555,4.4238,4.498,4.4844,4.543,4.6308,4.6308,4.6308,4.6308,4.6308,4.6308,4.6308,4.6308,4.6308,4.6308,4.6308,4.6308,4.6308,4.6308,4.6308,4.6308,4.6308,4.6308,4.6308,4.6308,4.6308,4.6308,4.6308,4.6308,4.6308,4.6308,4.6308,4.6308,4.6308,4.6308,4.6308,4.6308,4.6308,4.6308,4.6308,4.6308,4.6308,4.6308,4.6308,4.6308,4.6308,4.6308,4.6308,4.6308,4.6308,4.6308,4.6308,4.6308,4.6308,4.6308,4.6308,4.62,4.6005,4.59,4.5817,3.4277,0.0,0.0,0.0,0.0,0.0,0.0,0.0,0.0,0.0,0.0,0.0,0.0,0.0,0.0,3.2031,0.0,3.2363,0.0,0.0,0.0,0.0,0.0,0.0,0.0,0.0,0.0,0.0,0.0,0.0,3.9824,4.0508,4.0957,4.1191,4.1191,4.1191,4.1191,4.1191,4.1191,4.1191,4.1191,4.1191,4.1191,4.1191,4.1191,4.1191,4.1191,4.1191,4.125,4.1836,4.2715,4.3672,4.3437,4.418,4.5254,4.4375,4.5019,4.6308,4.6308,4.6308,4.6308,4.6308,4.6308,4.6308,4.6308,4.6308,4.6308,4.6308,4.6308,4.6308,4.6308,4.6308,4.6308,4.6308,4.6308,4.6308,4.6308,4.6308,4.6308,4.6308,4.6308,4.6308,4.6308,4.6308,4.6308,4.6308,4.6308,4.6308,4.6308,4.6308,4.6308,4.6308,4.6308,4.6308,4.6308,4.6308,4.6308,4.6308,4.6308,4.6308,4.6308,4.6308,4.6308,4.6308,4.6308,4.6308,4.6308,4.6308,4.6247,4.6148,4.6027,4.5905,0.0,0.0,0.0,3.3828,0.0,0.0,0.0,0.0,3.2168,0.0,0.0,0.0,0.0,0.0,3.3047,3.2324,3.2851,0.0,0.0,0.0,0.0,0.0,0.0,0.0,0.0,0.0,0.0,0.0,0.0,0.0,3.9726,3.9922,4.0332,4.1172,4.1191,4.1191,4.1191,4.1191,4.1191,4.1191,4.1191,4.1191,4.1191,4.1191,4.1191,4.1191,4.1191,4.1191,4.1191,4.123,4.2207,4.3613,4.2773,4.4004,4.6152,4.5273,4.5527,4.6308,4.6308,4.6308,4.6308,4.6308,4.6308,4.6308,4.6308,4.6308,4.6308,4.6308,4.6308,4.6308,4.6308,4.6308,4.6308,4.6308,4.6308,4.6308,4.6308,4.6308,4.6308,4.6308,4.6308,4.6308,4.6308,4.6308,4.6308,4.6308,4.6308,4.6308,4.6308,4.6308,4.6308,4.6308,4.6308,4.6308,4.6308,4.6308,4.6308,4.6308,4.6308,4.6308,4.6308,4.6308,4.6308,4.6308,4.6308,4.6308,4.6308,4.6308,4.6308,4.6289,4.6169,4.6029,0.0,0.0,3.5723,3.4551,0.0,0.0,0.0,0.0,0.0,0.0,0.0,0.0,0.0,3.3398,3.3144,3.2324,3.2422,3.2207,0.0,0.0,0.0,0.0,0.0,0.0,0.0,0.0,0.0,0.0,3.6582,0.0,0.0,4.0137,4.0898,4.1191,4.1191,4.1191,4.1191,4.1191,4.1191,4.1191,4.1191,4.1191,4.1191,4.1191,4.1191,4.1191,4.1191,4.1504,4.2031,4.2617,4.3535,4.4531,4.4238,4.5019,4.6191,4.5312,4.5547,4.6308,4.6308,4.6308,4.6308,4.6308,4.6308,4.6308,4.6308,4.6308,4.6308,4.6308,4.6308,4.6308,4.6308,4.6308,4.6308,4.6308,4.6308,4.6308,4.6308,4.6308,4.6308,4.6308,4.6308,4.6308,4.6308,4.6308,4.6308,4.6308,4.6308,4.6308,4.6308,4.6308,4.6308,4.6308,4.6308,4.6308,4.6308,4.6308,4.6308,4.6308,4.6308,4.6308,4.6308,4.6308,4.6308,4.6308,4.6308,4.6308,4.6308,4.6308,4.6308,4.6308,4.6248,4.6151,3.5996,3.5996,0.0,3.4922,3.4277,0.0,3.2441,0.0,0.0,0.0,0.0,0.0,0.0,0.0,3.3691,3.3164,3.2598,3.1894,0.0,3.043,0.0,0.0,0.0,0.0,0.0,0.0,3.5019,3.5937,3.623,0.0,0.0,0.0,4.0879,4.1191,4.1191,4.1191,4.1191,4.1191,4.1191,4.1191,4.1191,4.1191,4.1191,4.1191,4.1191,4.1191,4.1191,4.166,4.2441,4.3008,4.3926,4.5,4.5,4.5527,4.6191,4.5312,4.5547,4.6308,4.6308,4.6308,4.6308,4.6308,4.6308,4.6308,4.6308,4.6308,4.6308,4.6308,4.6308,4.6308,4.6308,4.6308,4.6308,4.6308,4.6308,4.6308,4.6308,4.6308,4.6308,4.6308,4.6308,4.6308,4.6308,4.6308,4.6308,4.6308,4.6308,4.6308,4.6308,4.6308,4.6308,4.6308,4.6308,4.6308,4.6308,4.6308,4.6308,4.6308,4.6308,4.6308,4.6308,4.6308,4.6308,4.6308,4.6308,4.6308,4.6308,4.6308,4.6308,4.6308,4.6308,4.6248]}]]